Time,TemperatureF,DewpointF,PressureIn,WindDirection,WindDirectionDegrees,WindSpeedMPH,WindSpeedGustMPH,Humidity,HourlyPrecipIn,Conditions,Clouds,dailyrainin,SolarRadiationWatts/m^2,SoftwareType,DateUTC
2013-09-27 00:00:00,67.8,63.1,30.00,NE,52,0.0,0.0,85,0.00,SCT,,0.00,0.0,WeatherDisplay:10.37,2013-09-26 22:00:00,
2013-09-27 00:01:00,67.8,63.1,30.01,NE,52,0.0,0.0,85,0.00,SCT,,0.00,0.0,WeatherDisplay:10.37,2013-09-26 22:01:00,
2013-09-27 00:04:00,67.8,63.1,30.00,NE,52,0.0,0.0,85,0.00,SCT,,0.00,0.0,WeatherDisplay:10.37,2013-09-26 22:04:00,
2013-09-27 00:05:00,67.8,63.1,30.01,NE,52,0.0,0.0,85,0.00,SCT,,0.00,0.0,WeatherDisplay:10.37,2013-09-26 22:05:00,
2013-09-27 00:07:00,67.7,63.0,30.00,NE,52,0.0,0.0,85,0.00,SCT,,0.00,0.0,WeatherDisplay:10.37,2013-09-26 22:07:00,
2013-09-27 00:10:00,67.7,63.0,30.00,NE,52,0.0,0.0,85,0.00,SCT,,0.00,0.0,WeatherDisplay:10.37,2013-09-26 22:10:00,
2013-09-27 00:11:00,67.7,63.0,30.00,NE,52,0.0,0.0,85,0.00,SCT,,0.00,0.0,WeatherDisplay:10.37,2013-09-26 22:11:00,
2013-09-27 00:12:00,67.7,63.0,30.00,NE,52,0.0,0.0,85,0.00,SCT,,0.00,0.0,WeatherDisplay:10.37,2013-09-26 22:12:00,
2013-09-27 00:15:00,67.7,63.0,30.00,NE,52,0.0,0.0,85,0.00,SCT,,0.00,0.0,WeatherDisplay:10.37,2013-09-26 22:15:00,
2013-09-27 00:16:00,67.7,63.0,30.00,NE,52,0.0,0.0,85,0.00,SCT,,0.00,0.0,WeatherDisplay:10.37,2013-09-26 22:16:00,
2013-09-27 00:17:00,67.7,63.0,30.00,NE,52,0.0,0.0,85,0.00,SCT,,0.00,0.0,WeatherDisplay:10.37,2013-09-26 22:17:00,
2013-09-27 00:21:00,67.6,62.9,30.00,NE,52,0.0,0.0,85,0.00,SCT,,0.00,0.0,WeatherDisplay:10.37,2013-09-26 22:21:00,
2013-09-27 00:23:00,67.6,62.9,30.00,NE,52,0.0,0.0,85,0.00,SCT,,0.00,0.0,WeatherDisplay:10.37,2013-09-26 22:23:00,
2013-09-27 00:26:00,67.6,63.3,30.00,NE,52,0.0,0.0,86,0.00,SCT,,0.00,0.0,WeatherDisplay:10.37,2013-09-26 22:26:00,
2013-09-27 00:28:00,67.7,63.4,30.00,NE,52,0.0,0.0,86,0.00,SCT,,0.00,0.0,WeatherDisplay:10.37,2013-09-26 22:28:00,
2013-09-27 00:31:00,67.7,63.4,30.00,NE,52,0.0,0.0,86,0.00,SCT,,0.00,0.0,WeatherDisplay:10.37,2013-09-26 22:31:00,
2013-09-27 00:33:00,67.6,63.3,30.00,NE,52,0.0,0.0,86,0.00,SCT,,0.00,0.0,WeatherDisplay:10.37,2013-09-26 22:33:00,
2013-09-27 00:36:00,67.6,63.3,30.00,NE,52,0.0,0.0,86,0.00,SCT,,0.00,0.0,WeatherDisplay:10.37,2013-09-26 22:36:00,
2013-09-27 00:38:00,67.6,63.3,30.00,NE,52,0.0,0.0,86,0.00,SCT,,0.00,0.0,WeatherDisplay:10.37,2013-09-26 22:38:00,
2013-09-27 00:39:00,67.6,62.9,30.00,NE,52,0.0,0.0,85,0.00,SCT,,0.00,0.0,WeatherDisplay:10.37,2013-09-26 22:39:00,
2013-09-27 00:42:00,67.5,62.8,30.00,NE,52,0.0,0.0,85,0.00,SCT,,0.00,0.0,WeatherDisplay:10.37,2013-09-26 22:42:00,
2013-09-27 00:44:00,67.5,63.2,30.00,NE,52,0.0,0.0,86,0.00,SCT,,0.00,0.0,WeatherDisplay:10.37,2013-09-26 22:44:00,
2013-09-27 00:47:00,67.5,63.2,30.00,NE,52,0.0,0.0,86,0.00,SCT,,0.00,0.0,WeatherDisplay:10.37,2013-09-26 22:47:00,
2013-09-27 00:48:00,67.5,63.2,30.00,NE,52,0.0,0.0,86,0.00,SCT,,0.00,0.0,WeatherDisplay:10.37,2013-09-26 22:48:00,
2013-09-27 00:49:00,67.5,63.2,30.00,NE,52,0.0,0.0,86,0.00,SCT,,0.00,0.0,WeatherDisplay:10.37,2013-09-26 22:49:00,
2013-09-27 00:50:00,67.5,63.2,30.00,NE,52,0.0,0.0,86,0.00,SCT,,0.00,0.0,WeatherDisplay:10.37,2013-09-26 22:50:00,
2013-09-27 00:52:00,67.5,63.2,30.00,NE,52,0.0,0.0,86,0.00,SCT,,0.00,0.0,WeatherDisplay:10.37,2013-09-26 22:52:00,
2013-09-27 00:53:00,67.5,63.2,30.00,NE,52,0.0,0.0,86,0.00,SCT,,0.00,0.0,WeatherDisplay:10.37,2013-09-26 22:53:00,
2013-09-27 00:54:00,67.5,63.2,30.00,NE,52,0.0,0.0,86,0.00,SCT,,0.00,0.0,WeatherDisplay:10.37,2013-09-26 22:54:00,
2013-09-27 00:56:00,67.5,63.2,30.00,NE,52,0.0,0.0,86,0.00,SCT,,0.00,0.0,WeatherDisplay:10.37,2013-09-26 22:56:00,
2013-09-27 00:57:00,67.6,63.3,30.00,NE,52,0.0,0.0,86,0.00,SCT,,0.00,0.0,WeatherDisplay:10.37,2013-09-26 22:57:00,
2013-09-27 00:59:00,67.6,63.3,30.00,NE,52,0.0,0.0,86,0.00,SCT,,0.00,0.0,WeatherDisplay:10.37,2013-09-26 22:59:00,
2013-09-27 01:00:00,67.6,63.3,30.00,NE,52,0.0,0.0,86,0.00,SCT,,0.00,0.0,WeatherDisplay:10.37,2013-09-26 23:00:00,
2013-09-27 01:01:00,67.6,63.3,30.00,NE,52,0.0,0.0,86,0.00,SCT,,0.00,0.0,WeatherDisplay:10.37,2013-09-26 23:01:00,
2013-09-27 01:02:00,67.6,63.3,30.00,NE,52,0.0,0.0,86,0.00,SCT,,0.00,0.0,WeatherDisplay:10.37,2013-09-26 23:02:00,
2013-09-27 01:05:00,67.6,63.3,30.00,NE,52,0.0,0.0,86,0.00,SCT,,0.00,0.0,WeatherDisplay:10.37,2013-09-26 23:05:00,
2013-09-27 01:06:00,67.6,63.3,30.00,NE,52,0.0,0.0,86,0.00,SCT,,0.00,0.0,WeatherDisplay:10.37,2013-09-26 23:06:00,
2013-09-27 01:07:00,67.6,63.3,30.00,NE,52,0.0,0.0,86,0.00,SCT,,0.00,0.0,WeatherDisplay:10.37,2013-09-26 23:07:00,
2013-09-27 01:10:00,67.6,63.3,30.00,NE,52,0.0,0.0,86,0.00,SCT,,0.00,0.0,WeatherDisplay:10.37,2013-09-26 23:10:00,
2013-09-27 01:11:00,67.7,63.4,30.00,NE,52,0.0,0.0,86,0.00,SCT,,0.00,0.0,WeatherDisplay:10.37,2013-09-26 23:11:00,
2013-09-27 01:12:00,67.7,63.4,30.01,NE,52,0.0,0.0,86,0.00,SCT,,0.00,0.0,WeatherDisplay:10.37,2013-09-26 23:12:00,
2013-09-27 01:15:00,67.7,63.4,30.00,NE,52,0.0,0.0,86,0.00,SCT,,0.00,0.0,WeatherDisplay:10.37,2013-09-26 23:15:00,
2013-09-27 01:16:00,67.7,63.4,30.01,NE,52,0.0,0.0,86,0.00,SCT,,0.00,0.0,WeatherDisplay:10.37,2013-09-26 23:16:00,
2013-09-27 01:17:00,67.7,63.4,30.01,NE,52,0.0,0.0,86,0.00,SCT,,0.00,0.0,WeatherDisplay:10.37,2013-09-26 23:17:00,
2013-09-27 01:18:00,67.7,63.4,30.00,NE,52,0.0,0.0,86,0.00,SCT,,0.00,0.0,WeatherDisplay:10.37,2013-09-26 23:18:00,
2013-09-27 01:20:00,67.7,63.4,30.00,NE,52,0.0,0.0,86,0.00,SCT,,0.00,0.0,WeatherDisplay:10.37,2013-09-26 23:20:00,
2013-09-27 01:22:00,67.7,63.4,30.01,NE,52,0.0,0.0,86,0.00,SCT,,0.00,0.0,WeatherDisplay:10.37,2013-09-26 23:22:00,
2013-09-27 01:23:00,67.7,63.4,30.01,NE,52,0.0,0.0,86,0.00,SCT,,0.00,0.0,WeatherDisplay:10.37,2013-09-26 23:23:00,
2013-09-27 01:25:00,67.7,63.4,30.01,NE,52,0.0,0.0,86,0.00,SCT,,0.00,0.0,WeatherDisplay:10.37,2013-09-26 23:25:00,
2013-09-27 01:27:00,67.7,63.4,30.00,NE,52,0.0,0.0,86,0.00,SCT,,0.00,0.0,WeatherDisplay:10.37,2013-09-26 23:27:00,
2013-09-27 01:28:00,67.7,63.4,30.00,NE,52,0.0,0.0,86,0.00,SCT,,0.00,0.0,WeatherDisplay:10.37,2013-09-26 23:28:00,
2013-09-27 01:31:00,67.8,63.8,30.00,NE,52,0.0,0.0,87,0.00,SCT,,0.00,0.0,WeatherDisplay:10.37,2013-09-26 23:31:00,
2013-09-27 01:33:00,67.9,63.9,30.01,NE,52,0.0,0.0,87,0.00,SCT,,0.00,0.0,WeatherDisplay:10.37,2013-09-26 23:33:00,
2013-09-27 01:35:00,67.8,63.8,30.01,NE,52,0.0,0.0,87,0.00,SCT,,0.00,0.0,WeatherDisplay:10.37,2013-09-26 23:35:00,
2013-09-27 01:37:00,67.9,63.9,30.00,NE,52,0.0,0.0,87,0.00,SCT,,0.00,0.0,WeatherDisplay:10.37,2013-09-26 23:37:00,
2013-09-27 01:39:00,67.9,63.9,30.01,NE,52,0.0,0.0,87,0.00,SCT,,0.00,0.0,WeatherDisplay:10.37,2013-09-26 23:39:00,
2013-09-27 01:40:00,67.9,63.9,30.00,NE,52,0.0,0.0,87,0.00,SCT,,0.00,0.0,WeatherDisplay:10.37,2013-09-26 23:40:00,
2013-09-27 01:44:00,67.9,63.6,30.00,NE,52,0.0,0.0,86,0.00,SCT,,0.00,0.0,WeatherDisplay:10.37,2013-09-26 23:44:00,
2013-09-27 01:45:00,67.9,63.9,30.00,NE,53,0.0,0.0,87,0.00,SCT,,0.00,0.0,WeatherDisplay:10.37,2013-09-26 23:45:00,
2013-09-27 01:49:00,67.9,63.9,30.00,ENE,74,2.3,2.3,87,0.00,SCT,,0.00,0.0,WeatherDisplay:10.37,2013-09-26 23:49:00,
2013-09-27 01:50:00,67.9,63.9,30.00,ENE,59,3.5,3.5,87,0.00,SCT,,0.00,0.0,WeatherDisplay:10.37,2013-09-26 23:50:00,
2013-09-27 01:51:00,67.9,63.9,30.00,NE,51,4.0,4.0,87,0.00,SCT,,0.00,0.0,WeatherDisplay:10.37,2013-09-26 23:51:00,
2013-09-27 01:55:00,68.0,64.0,30.00,NE,51,3.5,3.5,87,0.00,SCT,,0.00,0.0,WeatherDisplay:10.37,2013-09-26 23:55:00,
2013-09-27 01:57:00,68.0,64.0,30.00,NE,51,3.5,0.0,87,0.00,SCT,,0.00,0.0,WeatherDisplay:10.37,2013-09-26 23:57:00,
2013-09-27 01:58:00,68.0,64.0,30.00,NE,51,0.0,0.0,87,0.00,SCT,,0.00,0.0,WeatherDisplay:10.37,2013-09-26 23:58:00,
2013-09-27 02:00:00,67.9,63.9,30.00,NE,51,0.0,0.0,87,0.00,SCT,,0.00,0.0,WeatherDisplay:10.37,2013-09-27 00:00:00,
2013-09-27 02:02:00,67.9,63.9,30.00,NE,51,0.0,0.0,87,0.00,SCT,,0.00,0.0,WeatherDisplay:10.37,2013-09-27 00:02:00,
2013-09-27 02:03:00,67.9,63.9,30.00,NE,51,0.0,0.0,87,0.00,SCT,,0.00,0.0,WeatherDisplay:10.37,2013-09-27 00:03:00,
2013-09-27 02:05:00,67.9,63.9,30.00,NE,51,0.0,0.0,87,0.00,SCT,,0.00,0.0,WeatherDisplay:10.37,2013-09-27 00:05:00,
2013-09-27 02:10:00,67.8,63.8,30.00,NE,51,0.0,0.0,87,0.00,SCT,,0.00,0.0,WeatherDisplay:10.37,2013-09-27 00:10:00,
2013-09-27 02:15:00,67.8,63.8,30.00,NE,51,0.0,0.0,87,0.00,SCT,,0.00,0.0,WeatherDisplay:10.37,2013-09-27 00:15:00,
2013-09-27 02:20:00,67.8,63.8,30.00,NE,51,0.0,0.0,87,0.00,SCT,,0.00,0.0,WeatherDisplay:10.37,2013-09-27 00:20:00,
2013-09-27 02:21:00,67.8,63.8,30.00,NE,51,0.0,0.0,87,0.00,SCT,,0.00,0.0,WeatherDisplay:10.37,2013-09-27 00:21:00,
2013-09-27 02:25:00,67.7,63.7,30.00,NE,51,0.0,0.0,87,0.00,SCT,,0.00,0.0,WeatherDisplay:10.37,2013-09-27 00:25:00,
2013-09-27 02:26:00,67.7,63.7,30.00,NE,51,0.0,0.0,87,0.00,SCT,,0.00,0.0,WeatherDisplay:10.37,2013-09-27 00:26:00,
2013-09-27 02:31:00,67.6,63.3,30.00,NE,51,0.0,0.0,86,0.00,SCT,,0.00,0.0,WeatherDisplay:10.37,2013-09-27 00:31:00,
2013-09-27 02:32:00,67.6,63.3,30.00,NE,51,0.0,0.0,86,0.00,SCT,,0.00,0.0,WeatherDisplay:10.37,2013-09-27 00:32:00,
2013-09-27 02:36:00,67.5,63.2,30.00,NE,51,0.0,0.0,86,0.00,SCT,,0.00,0.0,WeatherDisplay:10.37,2013-09-27 00:36:00,
2013-09-27 02:37:00,67.5,63.2,30.00,NE,51,0.0,0.0,86,0.00,SCT,,0.00,0.0,WeatherDisplay:10.37,2013-09-27 00:37:00,
2013-09-27 02:41:00,67.4,63.1,30.00,NE,51,0.0,0.0,86,0.00,SCT,,0.00,0.0,WeatherDisplay:10.37,2013-09-27 00:41:00,
2013-09-27 02:42:00,67.4,63.1,30.00,NE,51,0.0,0.0,86,0.00,SCT,,0.00,0.0,WeatherDisplay:10.37,2013-09-27 00:42:00,
2013-09-27 02:46:00,67.4,63.1,30.00,NE,51,0.0,0.0,86,0.00,SCT,,0.00,0.0,WeatherDisplay:10.37,2013-09-27 00:46:00,
2013-09-27 02:47:00,67.3,63.0,30.00,NE,51,0.0,0.0,86,0.00,SCT,,0.00,0.0,WeatherDisplay:10.37,2013-09-27 00:47:00,
2013-09-27 02:51:00,67.3,63.3,30.00,NE,51,0.0,0.0,87,0.00,SCT,,0.00,0.0,WeatherDisplay:10.37,2013-09-27 00:51:00,
2013-09-27 02:52:00,67.3,63.3,30.00,NE,51,0.0,0.0,87,0.00,SCT,,0.00,0.0,WeatherDisplay:10.37,2013-09-27 00:52:00,
2013-09-27 02:56:00,67.3,63.3,30.00,NE,51,0.0,0.0,87,0.00,SCT,,0.00,0.0,WeatherDisplay:10.37,2013-09-27 00:56:00,
2013-09-27 02:57:00,67.3,63.3,30.00,NE,51,0.0,0.0,87,0.00,SCT,,0.00,0.0,WeatherDisplay:10.37,2013-09-27 00:57:00,
2013-09-27 03:02:00,67.3,63.3,30.00,East,97,0.0,0.0,87,0.00,SCT,,0.00,0.0,WeatherDisplay:10.37,2013-09-27 01:02:00,
2013-09-27 03:03:00,67.3,63.3,30.00,East,97,0.0,0.0,87,0.00,SCT,,0.00,0.0,WeatherDisplay:10.37,2013-09-27 01:03:00,
2013-09-27 03:07:00,67.2,63.2,30.00,East,97,0.0,0.0,87,0.00,SCT,,0.00,0.0,WeatherDisplay:10.37,2013-09-27 01:07:00,
2013-09-27 03:08:00,67.2,63.2,30.00,East,97,0.0,0.0,87,0.00,SCT,,0.00,0.0,WeatherDisplay:10.37,2013-09-27 01:08:00,
2013-09-27 03:12:00,67.2,63.2,30.00,East,97,0.0,0.0,87,0.00,SCT,,0.00,0.0,WeatherDisplay:10.37,2013-09-27 01:12:00,
2013-09-27 03:13:00,67.2,63.2,30.00,East,97,0.0,0.0,87,0.00,SCT,,0.00,0.0,WeatherDisplay:10.37,2013-09-27 01:13:00,
2013-09-27 03:17:00,67.2,63.2,29.99,East,97,0.0,0.0,87,0.00,SCT,,0.00,0.0,WeatherDisplay:10.37,2013-09-27 01:17:00,
2013-09-27 03:18:00,67.2,63.2,29.99,East,97,0.0,0.0,87,0.00,SCT,,0.00,0.0,WeatherDisplay:10.37,2013-09-27 01:18:00,
2013-09-27 03:19:00,67.2,63.2,29.99,East,97,0.0,0.0,87,0.00,SCT,,0.00,0.0,WeatherDisplay:10.37,2013-09-27 01:19:00,
2013-09-27 03:22:00,67.2,63.2,29.99,East,97,0.0,0.0,87,0.00,SCT,,0.00,0.0,WeatherDisplay:10.37,2013-09-27 01:22:00,
2013-09-27 03:23:00,67.2,63.2,29.99,East,97,0.0,0.0,87,0.00,SCT,,0.00,0.0,WeatherDisplay:10.37,2013-09-27 01:23:00,
2013-09-27 03:25:00,67.1,63.1,29.99,East,97,0.0,0.0,87,0.00,SCT,,0.00,0.0,WeatherDisplay:10.37,2013-09-27 01:25:00,
2013-09-27 03:27:00,67.1,63.1,29.99,East,97,0.0,0.0,87,0.00,SCT,,0.00,0.0,WeatherDisplay:10.37,2013-09-27 01:27:00,
2013-09-27 03:28:00,67.1,63.1,29.99,East,97,0.0,0.0,87,0.00,SCT,,0.00,0.0,WeatherDisplay:10.37,2013-09-27 01:28:00,
2013-09-27 03:30:00,67.1,63.1,29.99,East,97,0.0,0.0,87,0.00,SCT,,0.00,0.0,WeatherDisplay:10.37,2013-09-27 01:30:00,
2013-09-27 03:33:00,67.0,63.0,29.99,East,97,0.0,0.0,87,0.00,SCT,,0.00,0.0,WeatherDisplay:10.37,2013-09-27 01:33:00,
2013-09-27 03:34:00,67.0,63.0,29.99,East,97,0.0,0.0,87,0.00,SCT,,0.00,0.0,WeatherDisplay:10.37,2013-09-27 01:34:00,
2013-09-27 03:36:00,67.0,63.0,29.99,East,97,0.0,0.0,87,0.00,SCT,,0.00,0.0,WeatherDisplay:10.37,2013-09-27 01:36:00,
2013-09-27 03:38:00,67.0,63.0,29.99,East,97,0.0,0.0,87,0.00,SCT,,0.00,0.0,WeatherDisplay:10.37,2013-09-27 01:38:00,
2013-09-27 03:39:00,67.0,63.0,29.99,East,97,0.0,0.0,87,0.00,SCT,,0.00,0.0,WeatherDisplay:10.37,2013-09-27 01:39:00,
2013-09-27 03:41:00,66.9,62.9,29.99,East,97,0.0,0.0,87,0.00,SCT,,0.00,0.0,WeatherDisplay:10.37,2013-09-27 01:41:00,
2013-09-27 03:43:00,66.9,62.9,29.99,East,97,0.0,0.0,87,0.00,SCT,,0.00,0.0,WeatherDisplay:10.37,2013-09-27 01:43:00,
2013-09-27 03:44:00,66.9,62.9,29.99,East,97,0.0,0.0,87,0.00,SCT,,0.00,0.0,WeatherDisplay:10.37,2013-09-27 01:44:00,
2013-09-27 03:46:00,66.8,62.8,29.99,East,97,0.0,0.0,87,0.00,SCT,,0.00,0.0,WeatherDisplay:10.37,2013-09-27 01:46:00,
2013-09-27 03:48:00,66.8,62.8,29.99,East,97,0.0,0.0,87,0.00,SCT,,0.00,0.0,WeatherDisplay:10.37,2013-09-27 01:48:00,
2013-09-27 03:49:00,66.8,62.8,29.99,East,97,0.0,0.0,87,0.00,SCT,,0.00,0.0,WeatherDisplay:10.37,2013-09-27 01:49:00,
2013-09-27 03:51:00,66.8,62.8,29.99,East,97,0.0,0.0,87,0.00,SCT,,0.00,0.0,WeatherDisplay:10.37,2013-09-27 01:51:00,
2013-09-27 03:53:00,66.7,62.7,29.99,East,97,0.0,0.0,87,0.00,SCT,,0.00,0.0,WeatherDisplay:10.37,2013-09-27 01:53:00,
2013-09-27 03:54:00,66.7,62.7,29.99,East,97,0.0,0.0,87,0.00,SCT,,0.00,0.0,WeatherDisplay:10.37,2013-09-27 01:54:00,
2013-09-27 03:57:00,66.7,62.7,29.98,East,97,0.0,0.0,87,0.00,SCT,,0.00,0.0,WeatherDisplay:10.37,2013-09-27 01:57:00,
2013-09-27 03:58:00,66.7,62.7,29.98,East,97,0.0,0.0,87,0.00,SCT,,0.00,0.0,WeatherDisplay:10.37,2013-09-27 01:58:00,
2013-09-27 03:59:00,66.7,62.7,29.98,East,97,0.0,0.0,87,0.00,SCT,,0.00,0.0,WeatherDisplay:10.37,2013-09-27 01:59:00,
2013-09-27 04:00:00,66.7,62.7,29.98,East,97,0.0,0.0,87,0.00,SCT,,0.00,0.0,WeatherDisplay:10.37,2013-09-27 02:00:00,
2013-09-27 04:02:00,66.7,63.0,29.98,East,95,0.0,0.0,88,0.00,SCT,,0.00,0.0,WeatherDisplay:10.37,2013-09-27 02:02:00,
2013-09-27 04:03:00,66.7,63.0,29.98,East,95,0.0,0.0,88,0.00,SCT,,0.00,0.0,WeatherDisplay:10.37,2013-09-27 02:03:00,
2013-09-27 04:04:00,66.7,63.0,29.98,East,95,0.0,0.0,88,0.00,SCT,,0.00,0.0,WeatherDisplay:10.37,2013-09-27 02:04:00,
2013-09-27 04:05:00,66.7,63.0,29.98,East,95,0.0,0.0,88,0.00,SCT,,0.00,0.0,WeatherDisplay:10.37,2013-09-27 02:05:00,
2013-09-27 04:07:00,66.7,63.0,29.98,East,95,0.0,0.0,88,0.00,SCT,,0.00,0.0,WeatherDisplay:10.37,2013-09-27 02:07:00,
2013-09-27 04:08:00,66.7,63.0,29.98,East,95,0.0,0.0,88,0.00,SCT,,0.00,0.0,WeatherDisplay:10.37,2013-09-27 02:08:00,
2013-09-27 04:09:00,66.7,63.0,29.99,East,95,0.0,0.0,88,0.00,SCT,,0.00,0.0,WeatherDisplay:10.37,2013-09-27 02:09:00,
2013-09-27 04:10:00,66.7,63.0,29.99,East,95,0.0,0.0,88,0.00,SCT,,0.00,0.0,WeatherDisplay:10.37,2013-09-27 02:10:00,
2013-09-27 04:13:00,66.7,63.0,29.98,East,95,0.0,0.0,88,0.00,SCT,,0.00,0.0,WeatherDisplay:10.37,2013-09-27 02:13:00,
2013-09-27 04:14:00,66.7,63.0,29.99,East,95,0.0,0.0,88,0.00,SCT,,0.00,0.0,WeatherDisplay:10.37,2013-09-27 02:14:00,
2013-09-27 04:16:00,66.7,63.0,29.99,East,95,0.0,0.0,88,0.00,SCT,,0.00,0.0,WeatherDisplay:10.37,2013-09-27 02:16:00,
2013-09-27 04:18:00,66.7,63.0,29.98,East,95,0.0,0.0,88,0.00,SCT,,0.00,0.0,WeatherDisplay:10.37,2013-09-27 02:18:00,
2013-09-27 04:19:00,66.7,63.0,29.98,East,95,0.0,0.0,88,0.00,SCT,,0.00,0.0,WeatherDisplay:10.37,2013-09-27 02:19:00,
2013-09-27 04:21:00,66.6,62.9,29.98,East,95,0.0,0.0,88,0.00,SCT,,0.00,0.0,WeatherDisplay:10.37,2013-09-27 02:21:00,
2013-09-27 04:24:00,66.6,62.9,29.99,East,95,0.0,0.0,88,0.00,SCT,,0.00,0.0,WeatherDisplay:10.37,2013-09-27 02:24:00,
2013-09-27 04:26:00,66.6,62.9,29.98,East,95,0.0,0.0,88,0.00,SCT,,0.00,0.0,WeatherDisplay:10.37,2013-09-27 02:26:00,
2013-09-27 04:29:00,66.6,62.9,29.98,East,95,0.0,0.0,88,0.00,SCT,,0.00,0.0,WeatherDisplay:10.37,2013-09-27 02:29:00,
2013-09-27 04:31:00,66.6,62.9,29.98,East,95,0.0,0.0,88,0.00,SCT,,0.00,0.0,WeatherDisplay:10.37,2013-09-27 02:31:00,
2013-09-27 04:32:00,66.6,62.9,29.98,East,95,0.0,0.0,88,0.00,SCT,,0.00,0.0,WeatherDisplay:10.37,2013-09-27 02:32:00,
2013-09-27 04:34:00,66.5,62.8,29.98,East,95,0.0,0.0,88,0.00,SCT,,0.00,0.0,WeatherDisplay:10.37,2013-09-27 02:34:00,
2013-09-27 04:36:00,66.5,62.8,29.98,East,95,0.0,0.0,88,0.00,SCT,,0.00,0.0,WeatherDisplay:10.37,2013-09-27 02:36:00,
2013-09-27 04:37:00,66.5,62.8,29.98,East,95,0.0,0.0,88,0.00,SCT,,0.00,0.0,WeatherDisplay:10.37,2013-09-27 02:37:00,
2013-09-27 04:39:00,66.5,62.8,29.98,East,94,0.0,0.0,88,0.00,SCT,,0.00,0.0,WeatherDisplay:10.37,2013-09-27 02:39:00,
2013-09-27 04:42:00,66.5,62.8,29.98,East,94,0.0,0.0,88,0.00,SCT,,0.00,0.0,WeatherDisplay:10.37,2013-09-27 02:42:00,
2013-09-27 04:43:00,66.5,62.8,29.98,East,94,0.0,0.0,88,0.00,SCT,,0.00,0.0,WeatherDisplay:10.37,2013-09-27 02:43:00,
2013-09-27 04:44:00,66.5,62.8,29.98,East,94,0.0,0.0,88,0.00,SCT,,0.00,0.0,WeatherDisplay:10.37,2013-09-27 02:44:00,
2013-09-27 04:47:00,66.5,62.8,29.98,East,94,0.0,0.0,88,0.00,SCT,,0.00,0.0,WeatherDisplay:10.37,2013-09-27 02:47:00,
2013-09-27 04:48:00,66.5,62.8,29.97,East,94,0.0,0.0,88,0.00,SCT,,0.00,0.0,WeatherDisplay:10.37,2013-09-27 02:48:00,
2013-09-27 04:49:00,66.5,62.8,29.97,East,94,0.0,0.0,88,0.00,SCT,,0.00,0.0,WeatherDisplay:10.37,2013-09-27 02:49:00,
2013-09-27 04:52:00,66.5,62.8,29.97,East,94,0.0,0.0,88,0.00,SCT,,0.00,0.0,WeatherDisplay:10.37,2013-09-27 02:52:00,
2013-09-27 04:53:00,66.5,62.8,29.97,East,94,0.0,0.0,88,0.00,SCT,,0.00,0.0,WeatherDisplay:10.37,2013-09-27 02:53:00,
2013-09-27 04:54:00,66.5,62.8,29.97,East,92,0.0,0.0,88,0.00,SCT,,0.00,0.0,WeatherDisplay:10.37,2013-09-27 02:54:00,
2013-09-27 04:57:00,66.4,62.7,29.97,East,87,0.0,0.0,88,0.00,SCT,,0.00,0.0,WeatherDisplay:10.37,2013-09-27 02:57:00,
2013-09-27 04:58:00,66.4,62.7,29.97,East,87,1.2,1.2,88,0.00,SCT,,0.00,0.0,WeatherDisplay:10.37,2013-09-27 02:58:00,
2013-09-27 04:59:00,66.4,62.7,29.97,East,84,1.2,0.0,88,0.00,SCT,,0.00,0.0,WeatherDisplay:10.37,2013-09-27 02:59:00,
2013-09-27 05:00:00,66.4,62.7,29.97,East,84,1.2,0.0,88,0.00,SCT,,0.00,0.0,WeatherDisplay:10.37,2013-09-27 03:00:00,
2013-09-27 05:02:00,66.4,62.7,29.98,NE,50,0.0,0.0,88,0.00,SCT,,0.00,0.0,WeatherDisplay:10.37,2013-09-27 03:02:00,
2013-09-27 05:03:00,66.4,62.7,29.98,NE,50,0.0,0.0,88,0.00,SCT,,0.00,0.0,WeatherDisplay:10.37,2013-09-27 03:03:00,
2013-09-27 05:05:00,66.4,62.7,29.98,NE,50,0.0,0.0,88,0.00,SCT,,0.00,0.0,WeatherDisplay:10.37,2013-09-27 03:05:00,
2013-09-27 05:08:00,66.4,62.7,29.97,NE,50,0.0,0.0,88,0.00,SCT,,0.00,0.0,WeatherDisplay:10.37,2013-09-27 03:08:00,
2013-09-27 05:10:00,66.3,62.6,29.97,NE,50,0.0,0.0,88,0.00,SCT,,0.00,0.0,WeatherDisplay:10.37,2013-09-27 03:10:00,
2013-09-27 05:13:00,66.3,62.6,29.98,NE,50,0.0,0.0,88,0.00,SCT,,0.00,0.0,WeatherDisplay:10.37,2013-09-27 03:13:00,
2013-09-27 05:14:00,66.3,62.6,29.97,NE,50,0.0,0.0,88,0.00,SCT,,0.00,0.0,WeatherDisplay:10.37,2013-09-27 03:14:00,
2013-09-27 05:16:00,66.2,62.5,29.98,NE,50,0.0,0.0,88,0.00,SCT,,0.00,0.0,WeatherDisplay:10.37,2013-09-27 03:16:00,
2013-09-27 05:18:00,66.1,62.4,29.97,NE,50,0.0,0.0,88,0.00,SCT,,0.00,0.0,WeatherDisplay:10.37,2013-09-27 03:18:00,
2013-09-27 05:19:00,66.1,62.4,29.97,NE,53,0.0,0.0,88,0.00,SCT,,0.00,0.0,WeatherDisplay:10.37,2013-09-27 03:19:00,
2013-09-27 05:21:00,66.1,62.4,29.97,ENE,57,0.0,0.0,88,0.00,SCT,,0.00,0.0,WeatherDisplay:10.37,2013-09-27 03:21:00,
2013-09-27 05:24:00,66.2,62.5,29.97,ENE,57,0.0,0.0,88,0.00,SCT,,0.00,0.0,WeatherDisplay:10.37,2013-09-27 03:24:00,
2013-09-27 05:26:00,66.2,62.5,29.97,ENE,57,0.0,0.0,88,0.00,SCT,,0.00,0.0,WeatherDisplay:10.37,2013-09-27 03:26:00,
2013-09-27 05:29:00,66.2,62.5,29.97,ENE,57,0.0,0.0,88,0.00,SCT,,0.00,0.0,WeatherDisplay:10.37,2013-09-27 03:29:00,
2013-09-27 05:31:00,66.2,62.5,29.97,ENE,57,0.0,0.0,88,0.00,SCT,,0.00,0.0,WeatherDisplay:10.37,2013-09-27 03:31:00,
2013-09-27 05:32:00,66.2,62.5,29.97,ENE,57,0.0,0.0,88,0.00,SCT,,0.00,0.0,WeatherDisplay:10.37,2013-09-27 03:32:00,
2013-09-27 05:34:00,66.2,62.5,29.97,ENE,57,0.0,0.0,88,0.00,SCT,,0.00,0.0,WeatherDisplay:10.37,2013-09-27 03:34:00,
2013-09-27 05:36:00,66.2,62.5,29.97,ENE,57,0.0,0.0,88,0.00,SCT,,0.00,0.0,WeatherDisplay:10.37,2013-09-27 03:36:00,
2013-09-27 05:37:00,66.2,62.5,29.97,ENE,57,0.0,0.0,88,0.00,SCT,,0.00,0.0,WeatherDisplay:10.37,2013-09-27 03:37:00,
2013-09-27 05:39:00,66.2,62.9,29.97,ENE,57,0.0,0.0,89,0.00,SCT,,0.00,0.0,WeatherDisplay:10.37,2013-09-27 03:39:00,
2013-09-27 05:41:00,66.1,62.8,29.97,ENE,57,0.0,0.0,89,0.00,SCT,,0.00,0.0,WeatherDisplay:10.37,2013-09-27 03:41:00,
2013-09-27 05:42:00,66.1,62.8,29.97,ENE,57,0.0,0.0,89,0.00,SCT,,0.00,0.0,WeatherDisplay:10.37,2013-09-27 03:42:00,
2013-09-27 05:44:00,66.0,62.3,29.97,ENE,57,0.0,0.0,88,0.00,SCT,,0.00,0.0,WeatherDisplay:10.37,2013-09-27 03:44:00,
2013-09-27 05:47:00,65.9,62.2,29.98,ENE,57,0.0,0.0,88,0.00,SCT,,0.00,0.0,WeatherDisplay:10.37,2013-09-27 03:47:00,
2013-09-27 05:48:00,65.9,62.2,29.97,ENE,57,0.0,0.0,88,0.00,SCT,,0.00,0.0,WeatherDisplay:10.37,2013-09-27 03:48:00,
2013-09-27 05:49:00,65.9,62.2,29.98,ENE,57,0.0,0.0,88,0.00,SCT,,0.00,0.0,WeatherDisplay:10.37,2013-09-27 03:49:00,
2013-09-27 05:52:00,65.8,62.1,29.98,ENE,57,0.0,0.0,88,0.00,SCT,,0.00,0.0,WeatherDisplay:10.37,2013-09-27 03:52:00,
2013-09-27 05:53:00,65.8,62.1,29.98,ENE,57,0.0,0.0,88,0.00,SCT,,0.00,0.0,WeatherDisplay:10.37,2013-09-27 03:53:00,
2013-09-27 05:55:00,65.7,62.0,29.98,ENE,57,0.0,0.0,88,0.00,SCT,,0.00,0.0,WeatherDisplay:10.37,2013-09-27 03:55:00,
2013-09-27 05:57:00,65.7,62.0,29.98,ENE,57,0.0,0.0,88,0.00,SCT,,0.00,0.0,WeatherDisplay:10.37,2013-09-27 03:57:00,
2013-09-27 05:58:00,65.7,62.0,29.98,ENE,57,0.0,0.0,88,0.00,SCT,,0.00,0.0,WeatherDisplay:10.37,2013-09-27 03:58:00,
2013-09-27 05:59:00,65.7,62.0,29.98,ENE,57,0.0,0.0,88,0.00,SCT,,0.00,0.0,WeatherDisplay:10.37,2013-09-27 03:59:00,
2013-09-27 06:00:00,65.7,62.0,29.98,ENE,57,0.0,0.0,88,0.00,SCT,,0.00,0.0,WeatherDisplay:10.37,2013-09-27 04:00:00,
2013-09-27 06:01:00,65.6,61.9,29.98,ENE,57,0.0,0.0,88,0.00,SCT,,0.00,0.0,WeatherDisplay:10.37,2013-09-27 04:01:00,
2013-09-27 06:06:00,65.5,61.9,29.98,ENE,57,0.0,0.0,88,0.00,SCT,,0.00,0.0,WeatherDisplay:10.37,2013-09-27 04:06:00,
2013-09-27 06:11:00,65.4,61.8,29.98,ENE,57,0.0,0.0,88,0.00,SCT,,0.00,0.0,WeatherDisplay:10.37,2013-09-27 04:11:00,
2013-09-27 06:12:00,65.4,61.8,29.98,ENE,57,0.0,0.0,88,0.00,SCT,,0.00,0.0,WeatherDisplay:10.37,2013-09-27 04:12:00,
2013-09-27 06:16:00,65.3,61.7,29.98,ENE,57,0.0,0.0,88,0.00,SCT,,0.00,0.0,WeatherDisplay:10.37,2013-09-27 04:16:00,
2013-09-27 06:17:00,65.2,61.6,29.98,ENE,57,0.0,0.0,88,0.00,SCT,,0.00,0.0,WeatherDisplay:10.37,2013-09-27 04:17:00,
2013-09-27 06:22:00,65.2,61.9,29.98,ENE,57,0.0,0.0,89,0.00,SCT,,0.00,0.0,WeatherDisplay:10.37,2013-09-27 04:22:00,
2013-09-27 06:23:00,65.2,61.9,29.98,ENE,57,0.0,0.0,89,0.00,SCT,,0.00,0.0,WeatherDisplay:10.37,2013-09-27 04:23:00,
2013-09-27 06:27:00,65.3,62.0,29.98,ENE,57,0.0,0.0,89,0.00,SCT,,0.00,0.0,WeatherDisplay:10.37,2013-09-27 04:27:00,
2013-09-27 06:28:00,65.3,62.0,29.98,ENE,57,0.0,0.0,89,0.00,SCT,,0.00,0.0,WeatherDisplay:10.37,2013-09-27 04:28:00,
2013-09-27 06:29:00,65.3,62.0,29.98,ENE,57,0.0,0.0,89,0.00,SCT,,0.00,0.0,WeatherDisplay:10.37,2013-09-27 04:29:00,
2013-09-27 06:32:00,65.3,62.0,29.97,ENE,57,0.0,0.0,89,0.00,SCT,,0.00,0.0,WeatherDisplay:10.37,2013-09-27 04:32:00,
2013-09-27 06:33:00,65.2,61.9,29.98,ENE,57,0.0,0.0,89,0.00,SCT,,0.00,0.0,WeatherDisplay:10.37,2013-09-27 04:33:00,
2013-09-27 06:36:00,65.2,61.9,29.98,ENE,57,0.0,0.0,89,0.00,SCT,,0.00,0.0,WeatherDisplay:10.37,2013-09-27 04:36:00,
2013-09-27 06:37:00,65.2,61.9,29.98,ENE,57,0.0,0.0,89,0.00,SCT,,0.00,0.0,WeatherDisplay:10.37,2013-09-27 04:37:00,
2013-09-27 06:38:00,65.2,61.9,29.98,ENE,57,0.0,0.0,89,0.00,SCT,,0.00,0.0,WeatherDisplay:10.37,2013-09-27 04:38:00,
2013-09-27 06:39:00,65.1,61.8,29.98,ENE,57,0.0,0.0,89,0.00,SCT,,0.00,0.0,WeatherDisplay:10.37,2013-09-27 04:39:00,
2013-09-27 06:41:00,65.1,61.8,29.98,ENE,57,0.0,0.0,89,0.00,SCT,,0.00,0.0,WeatherDisplay:10.37,2013-09-27 04:41:00,
2013-09-27 06:42:00,65.1,61.8,29.98,ENE,57,0.0,0.0,89,0.00,SCT,,0.00,0.0,WeatherDisplay:10.37,2013-09-27 04:42:00,
2013-09-27 06:43:00,65.1,61.8,29.98,ENE,57,0.0,0.0,89,0.00,SCT,,0.00,0.0,WeatherDisplay:10.37,2013-09-27 04:43:00,
2013-09-27 06:44:00,65.1,61.8,29.98,ENE,57,0.0,0.0,89,0.00,SCT,,0.00,0.0,WeatherDisplay:10.37,2013-09-27 04:44:00,
2013-09-27 06:46:00,65.1,61.8,29.98,ENE,57,0.0,0.0,89,0.00,SCT,,0.00,0.0,WeatherDisplay:10.37,2013-09-27 04:46:00,
2013-09-27 06:47:00,65.0,61.7,29.98,ENE,57,0.0,0.0,89,0.00,SCT,,0.00,0.0,WeatherDisplay:10.37,2013-09-27 04:47:00,
2013-09-27 06:48:00,65.0,61.7,29.98,ENE,57,0.0,0.0,89,0.00,SCT,,0.00,0.0,WeatherDisplay:10.37,2013-09-27 04:48:00,
2013-09-27 06:49:00,65.0,61.7,29.98,ENE,57,0.0,0.0,89,0.00,SCT,,0.00,0.0,WeatherDisplay:10.37,2013-09-27 04:49:00,
2013-09-27 06:50:00,65.0,61.7,29.98,ENE,57,0.0,0.0,89,0.00,SCT,,0.00,0.0,WeatherDisplay:10.37,2013-09-27 04:50:00,
2013-09-27 06:52:00,65.0,61.7,29.98,ENE,57,0.0,0.0,89,0.00,SCT,,0.00,0.0,WeatherDisplay:10.37,2013-09-27 04:52:00,
2013-09-27 06:53:00,65.0,61.7,29.98,ENE,57,0.0,0.0,89,0.00,SCT,,0.00,0.0,WeatherDisplay:10.37,2013-09-27 04:53:00,
2013-09-27 06:54:00,65.0,61.7,29.98,ENE,57,0.0,0.0,89,0.00,SCT,,0.00,5.0,WeatherDisplay:10.37,2013-09-27 04:54:00,
2013-09-27 06:55:00,64.9,61.6,29.98,ENE,57,0.0,0.0,89,0.00,SCT,,0.00,5.0,WeatherDisplay:10.37,2013-09-27 04:55:00,
2013-09-27 06:57:00,64.9,61.6,29.98,ENE,57,0.0,0.0,89,0.00,SCT,,0.00,5.0,WeatherDisplay:10.37,2013-09-27 04:57:00,
2013-09-27 06:58:00,64.9,61.6,29.98,ENE,57,0.0,0.0,89,0.00,SCT,,0.00,7.0,WeatherDisplay:10.37,2013-09-27 04:58:00,
2013-09-27 06:59:00,64.9,61.6,29.98,ENE,57,0.0,0.0,89,0.00,SCT,,0.00,7.0,WeatherDisplay:10.37,2013-09-27 04:59:00,
2013-09-27 07:02:00,65.0,61.7,29.99,ENE,57,0.0,0.0,89,0.00,SCT,,0.00,9.0,WeatherDisplay:10.37,2013-09-27 05:02:00,
2013-09-27 07:03:00,65.0,61.7,29.98,ENE,57,0.0,0.0,89,0.00,SCT,,0.00,9.0,WeatherDisplay:10.37,2013-09-27 05:03:00,
2013-09-27 07:04:00,65.0,61.7,29.98,ENE,57,0.0,0.0,89,0.00,SCT,,0.00,11.0,WeatherDisplay:10.37,2013-09-27 05:04:00,
2013-09-27 07:07:00,65.0,61.7,29.98,ENE,57,0.0,0.0,89,0.00,OVC,,0.00,12.0,WeatherDisplay:10.37,2013-09-27 05:07:00,
2013-09-27 07:08:00,65.0,61.7,29.99,ENE,57,0.0,0.0,89,0.00,OVC,,0.00,12.0,WeatherDisplay:10.37,2013-09-27 05:08:00,
2013-09-27 07:09:00,65.0,61.7,29.99,ENE,57,0.0,0.0,89,0.00,OVC,,0.00,16.0,WeatherDisplay:10.37,2013-09-27 05:09:00,
2013-09-27 07:10:00,65.0,61.7,29.99,ENE,57,0.0,0.0,89,0.00,OVC,,0.00,16.0,WeatherDisplay:10.37,2013-09-27 05:10:00,
2013-09-27 07:13:00,65.0,61.7,29.99,ENE,57,0.0,0.0,89,0.00,OVC,,0.00,18.0,WeatherDisplay:10.37,2013-09-27 05:13:00,
2013-09-27 07:14:00,65.0,61.7,29.99,ENE,57,0.0,0.0,89,0.00,OVC,,0.00,19.0,WeatherDisplay:10.37,2013-09-27 05:14:00,
2013-09-27 07:15:00,65.0,61.7,29.99,ENE,57,0.0,0.0,89,0.00,OVC,,0.00,21.0,WeatherDisplay:10.37,2013-09-27 05:15:00,
2013-09-27 07:18:00,64.9,61.6,29.99,ENE,57,0.0,0.0,89,0.00,OVC,,0.00,23.0,WeatherDisplay:10.37,2013-09-27 05:18:00,
2013-09-27 07:19:00,64.9,61.6,29.99,ENE,57,0.0,0.0,89,0.00,OVC,,0.00,23.0,WeatherDisplay:10.37,2013-09-27 05:19:00,
2013-09-27 07:20:00,64.9,61.6,29.99,ENE,57,0.0,0.0,89,0.00,OVC,,0.00,25.0,WeatherDisplay:10.37,2013-09-27 05:20:00,
2013-09-27 07:21:00,64.9,61.6,29.99,ENE,57,0.0,0.0,89,0.00,OVC,,0.00,25.0,WeatherDisplay:10.37,2013-09-27 05:21:00,
2013-09-27 07:23:00,65.0,61.7,29.99,ENE,57,0.0,0.0,89,0.00,OVC,,0.00,25.0,WeatherDisplay:10.37,2013-09-27 05:23:00,
2013-09-27 07:24:00,65.0,61.7,29.99,ENE,57,0.0,0.0,89,0.00,OVC,,0.00,25.0,WeatherDisplay:10.37,2013-09-27 05:24:00,
2013-09-27 07:25:00,65.0,61.7,29.99,ENE,57,0.0,0.0,89,0.00,OVC,,0.00,25.0,WeatherDisplay:10.37,2013-09-27 05:25:00,
2013-09-27 07:26:00,65.0,61.7,29.99,ENE,57,0.0,0.0,89,0.00,OVC,,0.00,30.0,WeatherDisplay:10.37,2013-09-27 05:26:00,
2013-09-27 07:28:00,65.1,61.8,29.99,ENE,57,0.0,0.0,89,0.00,OVC,,0.00,35.0,WeatherDisplay:10.37,2013-09-27 05:28:00,
2013-09-27 07:29:00,65.1,61.8,29.99,ENE,57,0.0,0.0,89,0.00,OVC,,0.00,37.0,WeatherDisplay:10.37,2013-09-27 05:29:00,
2013-09-27 07:31:00,65.0,61.7,29.99,ENE,57,0.0,0.0,89,0.00,OVC,,0.00,39.0,WeatherDisplay:10.37,2013-09-27 05:31:00,
2013-09-27 07:33:00,65.1,61.8,30.00,ENE,57,0.0,0.0,89,0.00,OVC,,0.00,39.0,WeatherDisplay:10.37,2013-09-27 05:33:00,
2013-09-27 07:34:00,65.1,61.8,29.99,NE,53,0.0,0.0,89,0.00,OVC,,0.00,39.0,WeatherDisplay:10.37,2013-09-27 05:34:00,
2013-09-27 07:36:00,65.1,61.8,29.99,North,5,3.5,3.5,89,0.00,OVC,,0.00,42.0,WeatherDisplay:10.37,2013-09-27 05:36:00,
2013-09-27 07:39:00,64.9,61.6,29.99,North,5,3.5,3.5,89,0.00,OVC,,0.00,47.0,WeatherDisplay:10.37,2013-09-27 05:39:00,
2013-09-27 07:41:00,64.9,61.6,29.99,North,5,0.0,0.0,89,0.00,OVC,,0.00,47.0,WeatherDisplay:10.37,2013-09-27 05:41:00,
2013-09-27 07:44:00,64.9,61.6,29.99,North,5,0.0,0.0,89,0.00,OVC,,0.00,46.0,WeatherDisplay:10.37,2013-09-27 05:44:00,
2013-09-27 07:45:00,64.9,61.6,29.99,North,5,0.0,0.0,89,0.00,OVC,,0.00,44.0,WeatherDisplay:10.37,2013-09-27 05:45:00,
2013-09-27 07:46:00,64.9,61.6,29.99,North,5,0.0,0.0,89,0.00,OVC,,0.00,44.0,WeatherDisplay:10.37,2013-09-27 05:46:00,
2013-09-27 07:50:00,64.9,61.9,29.99,North,5,0.0,0.0,90,0.00,OVC,,0.00,53.0,WeatherDisplay:10.37,2013-09-27 05:50:00,
2013-09-27 07:51:00,65.0,62.0,29.99,North,5,0.0,0.0,90,0.00,OVC,,0.00,54.0,WeatherDisplay:10.37,2013-09-27 05:51:00,
2013-09-27 07:52:00,65.0,62.0,29.99,North,5,0.0,0.0,90,0.00,OVC,,0.00,44.0,WeatherDisplay:10.37,2013-09-27 05:52:00,
2013-09-27 07:55:00,65.1,62.1,29.99,North,5,0.0,0.0,90,0.00,OVC,,0.00,40.0,WeatherDisplay:10.37,2013-09-27 05:55:00,
2013-09-27 07:56:00,65.1,62.1,29.99,North,5,0.0,0.0,90,0.00,OVC,,0.00,42.0,WeatherDisplay:10.37,2013-09-27 05:56:00,
2013-09-27 07:57:00,65.2,62.2,29.99,North,5,0.0,0.0,90,0.00,OVC,,0.00,44.0,WeatherDisplay:10.37,2013-09-27 05:57:00,
2013-09-27 08:00:00,65.3,62.3,29.99,North,5,0.0,0.0,90,0.00,OVC,,0.00,49.0,WeatherDisplay:10.37,2013-09-27 06:00:00,
2013-09-27 08:01:00,65.3,62.3,30.00,North,5,0.0,0.0,90,0.00,OVC,,0.00,49.0,WeatherDisplay:10.37,2013-09-27 06:01:00,
2013-09-27 08:03:00,65.3,62.3,29.99,North,9,0.0,0.0,90,0.00,OVC,,0.00,60.0,WeatherDisplay:10.37,2013-09-27 06:03:00,
2013-09-27 08:06:00,65.4,62.4,29.99,North,9,0.0,0.0,90,0.00,SCT,,0.00,65.0,WeatherDisplay:10.37,2013-09-27 06:06:00,
2013-09-27 08:07:00,65.4,62.4,29.99,North,9,0.0,0.0,90,0.00,FEW,,0.00,63.0,WeatherDisplay:10.37,2013-09-27 06:07:00,
2013-09-27 08:08:00,65.4,62.4,29.99,North,9,0.0,0.0,90,0.00,FEW,,0.00,63.0,WeatherDisplay:10.37,2013-09-27 06:08:00,
2013-09-27 08:11:00,65.5,62.5,29.99,North,9,0.0,0.0,90,0.00,FEW,,0.00,69.0,WeatherDisplay:10.37,2013-09-27 06:11:00,
2013-09-27 08:12:00,65.5,62.5,29.99,North,9,0.0,0.0,90,0.00,CLR,,0.00,74.0,WeatherDisplay:10.37,2013-09-27 06:12:00,
2013-09-27 08:13:00,65.6,62.6,29.99,North,9,0.0,0.0,90,0.00,CLR,,0.00,76.0,WeatherDisplay:10.37,2013-09-27 06:13:00,
2013-09-27 08:17:00,65.7,62.7,29.99,North,9,0.0,0.0,90,0.00,CLR,,0.00,81.0,WeatherDisplay:10.37,2013-09-27 06:17:00,
2013-09-27 08:18:00,65.7,62.7,29.99,North,9,0.0,0.0,90,0.00,CLR,,0.00,81.0,WeatherDisplay:10.37,2013-09-27 06:18:00,
2013-09-27 08:19:00,65.8,62.8,29.99,North,9,0.0,0.0,90,0.00,CLR,,0.00,81.0,WeatherDisplay:10.37,2013-09-27 06:19:00,
2013-09-27 08:23:00,66.0,63.0,29.99,North,9,0.0,0.0,90,0.00,CLR,,0.00,165.0,WeatherDisplay:10.37,2013-09-27 06:23:00,
2013-09-27 08:24:00,66.0,63.0,29.99,North,5,0.0,0.0,90,0.00,CLR,,0.00,165.0,WeatherDisplay:10.37,2013-09-27 06:24:00,
2013-09-27 08:28:00,66.3,63.3,29.99,SSW,204,1.2,0.0,90,0.00,CLR,,0.00,128.0,WeatherDisplay:10.37,2013-09-27 06:28:00,
2013-09-27 08:29:00,66.3,63.3,29.99,SSW,198,0.0,0.0,90,0.00,CLR,,0.00,128.0,WeatherDisplay:10.37,2013-09-27 06:29:00,
2013-09-27 08:33:00,66.4,63.4,29.99,South,180,0.0,0.0,90,0.00,CLR,,0.00,216.0,WeatherDisplay:10.37,2013-09-27 06:33:00,
2013-09-27 08:34:00,66.4,63.4,29.99,South,180,0.0,0.0,90,0.00,CLR,,0.00,216.0,WeatherDisplay:10.37,2013-09-27 06:34:00,
2013-09-27 08:35:00,66.4,63.4,29.99,South,180,0.0,0.0,90,0.00,CLR,,0.00,214.0,WeatherDisplay:10.37,2013-09-27 06:35:00,
2013-09-27 08:39:00,66.6,63.6,30.00,SSW,196,0.0,0.0,90,0.00,CLR,,0.00,230.0,WeatherDisplay:10.37,2013-09-27 06:39:00,
2013-09-27 08:42:00,66.7,63.7,30.00,SW,221,1.2,0.0,90,0.00,CLR,,0.00,239.0,WeatherDisplay:10.37,2013-09-27 06:42:00,
2013-09-27 08:44:00,66.8,63.8,30.00,SW,223,0.0,0.0,90,0.00,CLR,,0.00,248.0,WeatherDisplay:10.37,2013-09-27 06:44:00,
2013-09-27 08:45:00,66.8,63.8,30.00,SW,223,0.0,0.0,90,0.00,CLR,,0.00,267.0,WeatherDisplay:10.37,2013-09-27 06:45:00,
2013-09-27 08:47:00,66.9,63.9,30.00,SW,223,0.0,0.0,90,0.00,CLR,,0.00,260.0,WeatherDisplay:10.37,2013-09-27 06:47:00,
2013-09-27 08:49:00,67.0,64.0,30.00,SW,223,0.0,0.0,90,0.00,CLR,,0.00,260.0,WeatherDisplay:10.37,2013-09-27 06:49:00,
2013-09-27 08:50:00,67.0,64.0,30.00,SW,223,0.0,0.0,90,0.00,CLR,,0.00,260.0,WeatherDisplay:10.37,2013-09-27 06:50:00,
2013-09-27 08:52:00,67.2,64.2,30.00,SW,223,0.0,0.0,90,0.00,CLR,,0.00,244.0,WeatherDisplay:10.37,2013-09-27 06:52:00,
2013-09-27 08:54:00,67.3,64.3,30.00,SW,223,0.0,0.0,90,0.00,CLR,,0.00,297.0,WeatherDisplay:10.37,2013-09-27 06:54:00,
2013-09-27 08:55:00,67.3,64.3,30.00,SW,223,0.0,0.0,90,0.00,CLR,,0.00,341.0,WeatherDisplay:10.37,2013-09-27 06:55:00,
2013-09-27 08:58:00,67.6,64.9,30.00,SW,223,0.0,0.0,91,0.00,CLR,,0.00,373.0,WeatherDisplay:10.37,2013-09-27 06:58:00,
2013-09-27 08:59:00,67.8,65.1,30.00,SW,223,0.0,0.0,91,0.00,CLR,,0.00,373.0,WeatherDisplay:10.37,2013-09-27 06:59:00,
2013-09-27 09:00:00,67.8,65.1,30.00,SW,223,0.0,0.0,91,0.00,CLR,,0.00,373.0,WeatherDisplay:10.37,2013-09-27 07:00:00,
2013-09-27 09:01:00,67.9,64.9,30.00,SW,223,0.0,0.0,90,0.00,CLR,,0.00,373.0,WeatherDisplay:10.37,2013-09-27 07:01:00,
2013-09-27 09:03:00,68.1,65.1,30.00,SW,223,0.0,0.0,90,0.00,CLR,,0.00,397.0,WeatherDisplay:10.37,2013-09-27 07:03:00,
2013-09-27 09:05:00,68.3,65.3,30.00,SW,223,0.0,0.0,90,0.00,CLR,,0.00,397.0,WeatherDisplay:10.37,2013-09-27 07:05:00,
2013-09-27 09:07:00,68.4,65.4,30.00,SW,223,0.0,0.0,90,0.00,CLR,,0.00,281.0,WeatherDisplay:10.37,2013-09-27 07:07:00,
2013-09-27 09:08:00,68.7,65.6,30.00,SW,223,0.0,0.0,90,0.00,CLR,,0.00,223.0,WeatherDisplay:10.37,2013-09-27 07:08:00,
2013-09-27 09:10:00,68.8,65.7,30.00,SW,223,0.0,0.0,90,0.00,CLR,,0.00,206.0,WeatherDisplay:10.37,2013-09-27 07:10:00,
2013-09-27 09:12:00,69.1,66.0,30.00,SW,223,0.0,0.0,90,0.00,CLR,,0.00,207.0,WeatherDisplay:10.37,2013-09-27 07:12:00,
2013-09-27 09:14:00,69.2,66.1,30.00,SSW,205,0.0,0.0,90,0.00,CLR,,0.00,155.0,WeatherDisplay:10.37,2013-09-27 07:14:00,
2013-09-27 09:15:00,69.2,66.1,30.00,SSW,205,0.0,0.0,90,0.00,CLR,,0.00,156.0,WeatherDisplay:10.37,2013-09-27 07:15:00,
2013-09-27 09:16:00,69.3,66.2,30.00,SSW,205,0.0,0.0,90,0.00,CLR,,0.00,156.0,WeatherDisplay:10.37,2013-09-27 07:16:00,
2013-09-27 09:18:00,69.4,66.3,30.00,SE,144,0.0,0.0,90,0.00,CLR,,0.00,151.0,WeatherDisplay:10.37,2013-09-27 07:18:00,
2013-09-27 09:19:00,69.4,66.3,30.00,SE,144,0.0,0.0,90,0.00,CLR,,0.00,142.0,WeatherDisplay:10.37,2013-09-27 07:19:00,
2013-09-27 09:21:00,69.4,66.3,30.00,SE,144,0.0,0.0,90,0.00,CLR,,0.00,137.0,WeatherDisplay:10.37,2013-09-27 07:21:00,
2013-09-27 09:23:00,69.4,66.3,30.00,SE,136,0.0,0.0,90,0.00,CLR,,0.00,120.0,WeatherDisplay:10.37,2013-09-27 07:23:00,
2013-09-27 09:25:00,69.4,66.0,30.00,SE,136,0.0,0.0,89,0.00,CLR,,0.00,113.0,WeatherDisplay:10.37,2013-09-27 07:25:00,
2013-09-27 09:26:00,69.4,66.0,30.00,SE,136,0.0,0.0,89,0.00,FEW,,0.00,105.0,WeatherDisplay:10.37,2013-09-27 07:26:00,
2013-09-27 09:27:00,69.5,66.1,30.00,SE,136,0.0,0.0,89,0.00,FEW,,0.00,105.0,WeatherDisplay:10.37,2013-09-27 07:27:00,
2013-09-27 09:28:00,69.5,66.1,30.00,SE,136,0.0,0.0,89,0.00,FEW,,0.00,113.0,WeatherDisplay:10.37,2013-09-27 07:28:00,
2013-09-27 09:30:00,69.6,66.2,30.00,SSE,153,1.2,0.0,89,0.00,FEW,,0.00,169.0,WeatherDisplay:10.37,2013-09-27 07:30:00,
2013-09-27 09:31:00,69.6,66.2,30.00,SSE,165,0.0,0.0,89,0.00,FEW,,0.00,202.0,WeatherDisplay:10.37,2013-09-27 07:31:00,
2013-09-27 09:32:00,69.6,66.2,30.00,SSE,165,0.0,0.0,89,0.00,FEW,,0.00,202.0,WeatherDisplay:10.37,2013-09-27 07:32:00,
2013-09-27 09:34:00,69.7,66.3,30.00,SSE,165,0.0,0.0,89,0.00,FEW,,0.00,202.0,WeatherDisplay:10.37,2013-09-27 07:34:00,
2013-09-27 09:35:00,69.7,66.3,30.00,SSE,165,0.0,0.0,89,0.00,FEW,,0.00,202.0,WeatherDisplay:10.37,2013-09-27 07:35:00,
2013-09-27 09:36:00,69.8,66.4,30.00,SSE,165,0.0,0.0,89,0.00,FEW,,0.00,114.0,WeatherDisplay:10.37,2013-09-27 07:36:00,
2013-09-27 09:37:00,69.8,66.4,30.00,SSE,165,0.0,0.0,89,0.00,FEW,,0.00,114.0,WeatherDisplay:10.37,2013-09-27 07:37:00,
2013-09-27 09:40:00,69.9,66.5,30.00,SSE,165,0.0,0.0,89,0.00,FEW,,0.00,127.0,WeatherDisplay:10.37,2013-09-27 07:40:00,
2013-09-27 09:42:00,70.0,66.6,30.00,SSE,165,0.0,0.0,89,0.00,FEW,,0.00,163.0,WeatherDisplay:10.37,2013-09-27 07:42:00,
2013-09-27 09:43:00,70.0,66.6,30.00,SSE,165,0.0,0.0,89,0.00,FEW,,0.00,163.0,WeatherDisplay:10.37,2013-09-27 07:43:00,
2013-09-27 09:46:00,70.1,66.4,30.00,SSE,165,0.0,0.0,88,0.00,FEW,,0.00,190.0,WeatherDisplay:10.37,2013-09-27 07:46:00,
2013-09-27 09:47:00,70.1,66.4,30.00,SSE,161,0.0,0.0,88,0.00,FEW,,0.00,213.0,WeatherDisplay:10.37,2013-09-27 07:47:00,
2013-09-27 09:48:00,70.2,66.5,30.01,SSE,162,0.0,0.0,88,0.00,FEW,,0.00,213.0,WeatherDisplay:10.37,2013-09-27 07:48:00,
2013-09-27 09:49:00,70.2,66.5,30.00,SSE,165,1.2,1.2,88,0.00,FEW,,0.00,213.0,WeatherDisplay:10.37,2013-09-27 07:49:00,
2013-09-27 09:51:00,70.2,66.5,30.01,SE,125,0.0,0.0,88,0.00,FEW,,0.00,239.0,WeatherDisplay:10.37,2013-09-27 07:51:00,
2013-09-27 09:53:00,70.3,66.6,30.01,SE,125,0.0,0.0,88,0.00,FEW,,0.00,172.0,WeatherDisplay:10.37,2013-09-27 07:53:00,
2013-09-27 09:54:00,70.4,66.7,30.01,SE,125,0.0,0.0,88,0.00,FEW,,0.00,160.0,WeatherDisplay:10.37,2013-09-27 07:54:00,
2013-09-27 09:58:00,70.5,66.4,30.01,SE,125,0.0,0.0,87,0.00,FEW,,0.00,148.0,WeatherDisplay:10.37,2013-09-27 07:58:00,
2013-09-27 09:59:00,70.5,66.4,30.01,SE,125,0.0,0.0,87,0.00,FEW,,0.00,158.0,WeatherDisplay:10.37,2013-09-27 07:59:00,
2013-09-27 10:03:00,70.6,66.5,30.01,ESE,103,0.0,0.0,87,0.00,FEW,,0.00,204.0,WeatherDisplay:10.37,2013-09-27 08:03:00,
2013-09-27 10:04:00,70.7,66.6,30.01,ESE,103,0.0,0.0,87,0.00,FEW,,0.00,181.0,WeatherDisplay:10.37,2013-09-27 08:04:00,
2013-09-27 10:05:00,70.7,66.3,30.01,ESE,103,0.0,0.0,86,0.00,FEW,,0.00,181.0,WeatherDisplay:10.37,2013-09-27 08:05:00,
2013-09-27 10:08:00,70.9,66.5,30.01,ESE,103,0.0,0.0,86,0.00,FEW,,0.00,171.0,WeatherDisplay:10.37,2013-09-27 08:08:00,
2013-09-27 10:09:00,70.9,66.5,30.01,ESE,103,0.0,0.0,86,0.00,FEW,,0.00,171.0,WeatherDisplay:10.37,2013-09-27 08:09:00,
2013-09-27 10:10:00,70.9,66.5,30.01,ESE,104,0.0,0.0,86,0.00,FEW,,0.00,146.0,WeatherDisplay:10.37,2013-09-27 08:10:00,
2013-09-27 10:14:00,71.2,66.5,30.01,SSW,212,5.0,5.0,85,0.00,FEW,,0.00,121.0,WeatherDisplay:10.37,2013-09-27 08:14:00,
2013-09-27 10:15:00,71.2,66.5,30.01,SW,224,4.6,4.6,85,0.00,FEW,,0.00,120.0,WeatherDisplay:10.37,2013-09-27 08:15:00,
2013-09-27 10:16:00,71.2,66.5,30.01,South,190,4.6,4.6,85,0.00,FEW,,0.00,120.0,WeatherDisplay:10.37,2013-09-27 08:16:00,
2013-09-27 10:19:00,71.2,66.1,30.01,SW,232,0.0,0.0,84,0.00,FEW,,0.00,130.0,WeatherDisplay:10.37,2013-09-27 08:19:00,
2013-09-27 10:20:00,71.3,66.2,30.01,SW,225,1.2,1.2,84,0.00,FEW,,0.00,190.0,WeatherDisplay:10.37,2013-09-27 08:20:00,
2013-09-27 10:21:00,71.3,66.2,30.01,SW,225,1.2,1.2,84,0.00,FEW,,0.00,190.0,WeatherDisplay:10.37,2013-09-27 08:21:00,
2013-09-27 10:24:00,71.5,66.4,30.01,SW,220,0.0,0.0,84,0.00,FEW,,0.00,459.0,WeatherDisplay:10.37,2013-09-27 08:24:00,
2013-09-27 10:25:00,71.6,66.5,30.01,SW,220,0.0,0.0,84,0.00,FEW,,0.00,315.0,WeatherDisplay:10.37,2013-09-27 08:25:00,
2013-09-27 10:26:00,71.7,66.3,30.01,SW,220,0.0,0.0,83,0.00,FEW,,0.00,315.0,WeatherDisplay:10.37,2013-09-27 08:26:00,
2013-09-27 10:27:00,71.7,66.3,30.01,SW,220,0.0,0.0,83,0.00,FEW,,0.00,315.0,WeatherDisplay:10.37,2013-09-27 08:27:00,
2013-09-27 10:29:00,72.0,66.6,30.01,SW,223,0.0,0.0,83,0.00,CLR,,0.00,334.0,WeatherDisplay:10.37,2013-09-27 08:29:00,
2013-09-27 10:30:00,72.1,66.6,30.01,South,178,1.2,0.0,83,0.00,CLR,,0.00,281.0,WeatherDisplay:10.37,2013-09-27 08:30:00,
2013-09-27 10:31:00,72.1,66.3,30.01,South,178,0.0,0.0,82,0.00,CLR,,0.00,246.0,WeatherDisplay:10.37,2013-09-27 08:31:00,
2013-09-27 10:32:00,72.2,66.4,30.01,South,178,0.0,0.0,82,0.00,CLR,,0.00,246.0,WeatherDisplay:10.37,2013-09-27 08:32:00,
2013-09-27 10:34:00,72.3,66.5,30.01,South,179,0.0,0.0,82,0.00,CLR,,0.00,425.0,WeatherDisplay:10.37,2013-09-27 08:34:00,
2013-09-27 10:36:00,72.5,66.3,30.01,NNE,33,2.3,2.3,81,0.00,CLR,,0.00,425.0,WeatherDisplay:10.37,2013-09-27 08:36:00,
2013-09-27 10:37:00,72.5,66.3,30.01,NE,34,3.5,3.5,81,0.00,CLR,,0.00,425.0,WeatherDisplay:10.37,2013-09-27 08:37:00,
2013-09-27 10:39:00,72.7,66.5,30.01,NNE,15,0.0,0.0,81,0.00,CLR,,0.00,425.0,WeatherDisplay:10.37,2013-09-27 08:39:00,
2013-09-27 10:41:00,72.8,66.6,30.01,NE,53,0.0,0.0,81,0.00,CLR,,0.00,174.0,WeatherDisplay:10.37,2013-09-27 08:41:00,
2013-09-27 10:42:00,72.9,66.7,30.00,East,97,0.0,0.0,81,0.00,CLR,,0.00,174.0,WeatherDisplay:10.37,2013-09-27 08:42:00,
2013-09-27 10:44:00,73.0,66.5,30.01,ENE,71,3.5,3.5,80,0.00,CLR,,0.00,209.0,WeatherDisplay:10.37,2013-09-27 08:44:00,
2013-09-27 10:46:00,73.0,66.5,30.00,ESE,114,1.2,1.2,80,0.00,FEW,,0.00,199.0,WeatherDisplay:10.37,2013-09-27 08:46:00,
2013-09-27 10:47:00,73.1,66.6,30.00,SE,126,0.0,0.0,80,0.00,FEW,,0.00,211.0,WeatherDisplay:10.37,2013-09-27 08:47:00,
2013-09-27 10:49:00,73.2,66.3,30.00,East,90,3.5,0.0,79,0.00,FEW,,0.00,211.0,WeatherDisplay:10.37,2013-09-27 08:49:00,
2013-09-27 10:51:00,73.2,66.3,30.00,East,92,0.0,0.0,79,0.00,FEW,,0.00,540.0,WeatherDisplay:10.37,2013-09-27 08:51:00,
2013-09-27 10:52:00,73.2,66.3,30.00,East,84,3.0,3.0,79,0.00,FEW,,0.00,540.0,WeatherDisplay:10.37,2013-09-27 08:52:00,
2013-09-27 10:53:00,73.3,66.4,30.00,ESE,113,3.5,0.0,79,0.00,FEW,,0.00,195.0,WeatherDisplay:10.37,2013-09-27 08:53:00,
2013-09-27 10:55:00,73.3,66.4,30.00,ESE,108,0.0,0.0,79,0.00,FEW,,0.00,230.0,WeatherDisplay:10.37,2013-09-27 08:55:00,
2013-09-27 10:56:00,73.3,66.4,30.00,ESE,110,3.5,3.5,79,0.00,FEW,,0.00,230.0,WeatherDisplay:10.37,2013-09-27 08:56:00,
2013-09-27 10:57:00,73.4,66.5,30.00,ESE,110,2.3,0.0,79,0.00,FEW,,0.00,230.0,WeatherDisplay:10.37,2013-09-27 08:57:00,
2013-09-27 10:59:00,73.5,66.6,30.00,ESE,110,0.0,0.0,79,0.00,FEW,,0.00,223.0,WeatherDisplay:10.37,2013-09-27 08:59:00,
2013-09-27 11:00:00,73.6,66.7,30.00,ESE,117,2.0,2.0,79,0.00,FEW,,0.00,223.0,WeatherDisplay:10.37,2013-09-27 09:00:00,
2013-09-27 11:02:00,73.6,66.3,30.00,ESE,111,3.5,3.5,78,0.00,FEW,,0.00,223.0,WeatherDisplay:10.37,2013-09-27 09:02:00,
2013-09-27 11:04:00,73.7,66.4,30.00,East,90,5.8,5.8,78,0.00,FEW,,0.00,151.0,WeatherDisplay:10.37,2013-09-27 09:04:00,
2013-09-27 11:05:00,73.7,66.4,30.00,East,93,8.1,8.1,78,0.00,FEW,,0.00,171.0,WeatherDisplay:10.37,2013-09-27 09:05:00,
2013-09-27 11:07:00,73.6,66.3,30.00,East,80,3.5,3.5,78,0.00,FEW,,0.00,179.0,WeatherDisplay:10.37,2013-09-27 09:07:00,
2013-09-27 11:10:00,73.6,65.9,30.00,ENE,70,3.5,3.5,77,0.00,FEW,,0.00,209.0,WeatherDisplay:10.37,2013-09-27 09:10:00,
2013-09-27 11:12:00,73.6,65.9,30.00,ENE,60,0.0,0.0,77,0.00,FEW,,0.00,209.0,WeatherDisplay:10.37,2013-09-27 09:12:00,
2013-09-27 11:15:00,73.7,66.0,30.00,NNE,12,3.5,3.5,77,0.00,FEW,,0.00,209.0,WeatherDisplay:10.37,2013-09-27 09:15:00,
2013-09-27 11:16:00,73.8,66.1,30.00,NNE,28,0.0,0.0,77,0.00,FEW,,0.00,209.0,WeatherDisplay:10.37,2013-09-27 09:16:00,
2013-09-27 11:17:00,73.9,66.2,30.00,NNW,335,1.2,1.2,77,0.00,FEW,,0.00,302.0,WeatherDisplay:10.37,2013-09-27 09:17:00,
2013-09-27 11:18:00,73.9,66.2,30.00,NNW,335,2.3,2.3,77,0.00,FEW,,0.00,302.0,WeatherDisplay:10.37,2013-09-27 09:18:00,
2013-09-27 11:20:00,74.3,66.6,30.00,South,187,1.2,1.2,77,0.00,FEW,,0.00,302.0,WeatherDisplay:10.37,2013-09-27 09:20:00,
2013-09-27 11:21:00,74.4,66.7,30.00,South,187,3.5,3.5,77,0.00,FEW,,0.00,229.0,WeatherDisplay:10.37,2013-09-27 09:21:00,
2013-09-27 11:23:00,74.6,66.5,30.00,West,271,6.0,6.0,76,0.00,FEW,,0.00,220.0,WeatherDisplay:10.37,2013-09-27 09:23:00,
2013-09-27 11:25:00,74.7,66.2,30.00,West,264,3.5,3.5,75,0.00,FEW,,0.00,207.0,WeatherDisplay:10.37,2013-09-27 09:25:00,
2013-09-27 11:26:00,74.7,66.2,30.00,WSW,258,4.6,4.6,75,0.00,FEW,,0.00,213.0,WeatherDisplay:10.37,2013-09-27 09:26:00,
2013-09-27 11:28:00,74.6,65.8,30.00,SW,232,4.6,4.6,74,0.00,FEW,,0.00,269.0,WeatherDisplay:10.37,2013-09-27 09:28:00,
2013-09-27 11:29:00,74.6,65.8,30.00,SW,219,1.0,0.0,74,0.00,FEW,,0.00,274.0,WeatherDisplay:10.37,2013-09-27 09:29:00,
2013-09-27 11:31:00,74.7,65.9,30.00,South,191,3.5,3.5,74,0.00,FEW,,0.00,278.0,WeatherDisplay:10.37,2013-09-27 09:31:00,
2013-09-27 11:34:00,74.8,66.0,30.00,West,266,0.0,0.0,74,0.00,FEW,,0.00,195.0,WeatherDisplay:10.37,2013-09-27 09:34:00,
2013-09-27 11:36:00,74.8,65.6,30.00,NW,313,4.6,4.6,73,0.00,FEW,,0.00,197.0,WeatherDisplay:10.37,2013-09-27 09:36:00,
2013-09-27 11:37:00,74.8,65.6,30.00,WNW,301,3.5,3.5,73,0.00,FEW,,0.00,197.0,WeatherDisplay:10.37,2013-09-27 09:37:00,
2013-09-27 11:39:00,74.8,65.6,30.00,NW,304,3.5,3.5,73,0.00,FEW,,0.00,232.0,WeatherDisplay:10.37,2013-09-27 09:39:00,
2013-09-27 11:42:00,74.8,65.6,30.00,NW,309,3.5,3.5,73,0.00,FEW,,0.00,267.0,WeatherDisplay:10.37,2013-09-27 09:42:00,
2013-09-27 11:43:00,74.8,65.6,30.00,NW,306,2.3,2.3,73,0.00,FEW,,0.00,267.0,WeatherDisplay:10.37,2013-09-27 09:43:00,
2013-09-27 11:44:00,74.8,65.6,30.00,NW,311,0.0,0.0,73,0.00,FEW,,0.00,250.0,WeatherDisplay:10.37,2013-09-27 09:44:00,
2013-09-27 11:45:00,74.8,65.6,30.00,WSW,250,4.0,4.0,73,0.00,FEW,,0.00,250.0,WeatherDisplay:10.37,2013-09-27 09:45:00,
2013-09-27 11:47:00,74.9,65.7,30.00,WSW,258,2.3,0.0,73,0.00,FEW,,0.00,232.0,WeatherDisplay:10.37,2013-09-27 09:47:00,
2013-09-27 11:48:00,75.0,65.8,30.00,SW,221,1.2,0.0,73,0.00,FEW,,0.00,221.0,WeatherDisplay:10.37,2013-09-27 09:48:00,
2013-09-27 11:50:00,75.1,65.9,30.00,WSW,250,0.0,0.0,73,0.00,FEW,,0.00,195.0,WeatherDisplay:10.37,2013-09-27 09:50:00,
2013-09-27 11:52:00,75.1,65.9,30.00,West,281,5.0,5.0,73,0.00,FEW,,0.00,186.0,WeatherDisplay:10.37,2013-09-27 09:52:00,
2013-09-27 11:53:00,75.2,65.9,30.00,WSW,239,6.0,6.0,73,0.00,FEW,,0.00,186.0,WeatherDisplay:10.37,2013-09-27 09:53:00,
2013-09-27 11:55:00,75.1,65.9,30.00,SW,232,4.6,4.6,73,0.00,FEW,,0.00,186.0,WeatherDisplay:10.37,2013-09-27 09:55:00,
2013-09-27 11:57:00,75.1,65.9,30.00,SW,232,3.5,3.5,73,0.00,FEW,,0.00,207.0,WeatherDisplay:10.37,2013-09-27 09:57:00,
2013-09-27 12:00:00,75.2,65.9,30.00,SSW,197,0.0,0.0,73,0.00,FEW,,0.00,206.0,WeatherDisplay:10.37,2013-09-27 10:00:00,
2013-09-27 12:01:00,75.2,65.9,29.99,WSW,239,3.0,3.0,73,0.00,FEW,,0.00,199.0,WeatherDisplay:10.37,2013-09-27 10:01:00,
2013-09-27 12:02:00,75.3,66.0,30.00,SW,232,3.5,3.5,73,0.00,FEW,,0.00,195.0,WeatherDisplay:10.37,2013-09-27 10:02:00,
2013-09-27 12:05:00,75.4,65.7,30.00,WSW,246,3.5,3.5,72,0.00,FEW,,0.00,232.0,WeatherDisplay:10.37,2013-09-27 10:05:00,
2013-09-27 12:06:00,75.4,66.1,29.99,WSW,246,3.5,3.5,73,0.00,FEW,,0.00,232.0,WeatherDisplay:10.37,2013-09-27 10:06:00,
2013-09-27 12:08:00,75.5,65.8,29.99,SW,227,1.2,0.0,72,0.00,FEW,,0.00,279.0,WeatherDisplay:10.37,2013-09-27 10:08:00,
2013-09-27 12:10:00,75.6,65.9,29.99,WSW,244,0.0,0.0,72,0.00,FEW,,0.00,260.0,WeatherDisplay:10.37,2013-09-27 10:10:00,
2013-09-27 12:11:00,75.7,66.0,29.99,WSW,243,0.0,0.0,72,0.00,FEW,,0.00,260.0,WeatherDisplay:10.37,2013-09-27 10:11:00,
2013-09-27 12:12:00,75.8,66.1,29.99,SSE,148,3.0,3.0,72,0.00,FEW,,0.00,260.0,WeatherDisplay:10.37,2013-09-27 10:12:00,
2013-09-27 12:13:00,75.9,66.2,29.99,West,279,3.5,0.0,72,0.00,FEW,,0.00,260.0,WeatherDisplay:10.37,2013-09-27 10:13:00,
2013-09-27 12:15:00,76.1,66.0,29.99,WNW,288,4.6,4.6,71,0.00,FEW,,0.00,260.0,WeatherDisplay:10.37,2013-09-27 10:15:00,
2013-09-27 12:16:00,76.1,66.0,29.99,WNW,290,3.5,3.5,71,0.00,FEW,,0.00,260.0,WeatherDisplay:10.37,2013-09-27 10:16:00,
2013-09-27 12:18:00,76.3,66.2,29.99,SW,217,0.0,0.0,71,0.00,FEW,,0.00,313.0,WeatherDisplay:10.37,2013-09-27 10:18:00,
2013-09-27 12:21:00,76.5,66.4,29.99,WNW,282,4.0,4.0,71,0.00,FEW,,0.00,313.0,WeatherDisplay:10.37,2013-09-27 10:21:00,
2013-09-27 12:22:00,76.5,66.0,29.99,West,262,5.0,5.0,70,0.00,FEW,,0.00,617.0,WeatherDisplay:10.37,2013-09-27 10:22:00,
2013-09-27 12:23:00,76.6,66.1,29.99,West,272,8.0,8.0,70,0.00,FEW,,0.00,271.0,WeatherDisplay:10.37,2013-09-27 10:23:00,
2013-09-27 12:26:00,76.6,66.1,29.99,WNW,288,4.6,4.6,70,0.00,FEW,,0.00,737.0,WeatherDisplay:10.37,2013-09-27 10:26:00,
2013-09-27 12:27:00,76.6,66.1,29.99,WNW,289,5.0,5.0,70,0.00,FEW,,0.00,737.0,WeatherDisplay:10.37,2013-09-27 10:27:00,
2013-09-27 12:28:00,76.7,66.2,29.99,WNW,291,5.8,5.8,70,0.00,FEW,,0.00,737.0,WeatherDisplay:10.37,2013-09-27 10:28:00,
2013-09-27 12:29:00,77.0,66.5,29.99,West,260,1.2,1.2,70,0.00,CLR,,0.00,737.0,WeatherDisplay:10.37,2013-09-27 10:29:00,
2013-09-27 12:31:00,77.1,66.1,29.99,WSW,255,4.6,4.6,69,0.00,CLR,,0.00,209.0,WeatherDisplay:10.37,2013-09-27 10:31:00,
2013-09-27 12:33:00,77.2,66.2,29.99,WNW,294,1.2,0.0,69,0.00,FEW,,0.00,216.0,WeatherDisplay:10.37,2013-09-27 10:33:00,
2013-09-27 12:34:00,77.2,65.8,29.99,West,262,4.0,4.0,68,0.00,FEW,,0.00,271.0,WeatherDisplay:10.37,2013-09-27 10:34:00,
2013-09-27 12:36:00,77.3,66.3,29.99,WNW,300,4.6,4.6,69,0.00,FEW,,0.00,271.0,WeatherDisplay:10.37,2013-09-27 10:36:00,
2013-09-27 12:38:00,77.3,66.3,29.98,WNW,288,6.9,6.9,69,0.00,FEW,,0.00,271.0,WeatherDisplay:10.37,2013-09-27 10:38:00,
2013-09-27 12:39:00,77.3,66.3,29.99,NW,307,6.9,6.9,69,0.00,FEW,,0.00,271.0,WeatherDisplay:10.37,2013-09-27 10:39:00,
2013-09-27 12:40:00,77.2,66.2,29.98,NW,312,3.5,3.5,69,0.00,FEW,,0.00,271.0,WeatherDisplay:10.37,2013-09-27 10:40:00,
2013-09-27 12:41:00,77.2,66.2,29.98,SW,232,2.3,0.0,69,0.00,FEW,,0.00,339.0,WeatherDisplay:10.37,2013-09-27 10:41:00,
2013-09-27 12:42:00,77.3,66.3,29.98,SW,232,1.2,1.2,69,0.00,FEW,,0.00,330.0,WeatherDisplay:10.37,2013-09-27 10:42:00,
2013-09-27 12:43:00,77.3,66.3,29.99,WNW,288,0.0,0.0,69,0.00,FEW,,0.00,330.0,WeatherDisplay:10.37,2013-09-27 10:43:00,
2013-09-27 12:44:00,77.3,66.3,29.99,WNW,303,8.1,8.1,69,0.00,FEW,,0.00,330.0,WeatherDisplay:10.37,2013-09-27 10:44:00,
2013-09-27 12:46:00,77.2,65.8,29.98,NNW,332,6.9,6.9,68,0.00,FEW,,0.00,183.0,WeatherDisplay:10.37,2013-09-27 10:46:00,
2013-09-27 12:47:00,77.2,65.8,29.98,NW,317,6.0,6.0,68,0.00,FEW,,0.00,167.0,WeatherDisplay:10.37,2013-09-27 10:47:00,
2013-09-27 12:48:00,77.1,65.7,29.98,WNW,299,7.0,7.0,68,0.00,FEW,,0.00,158.0,WeatherDisplay:10.37,2013-09-27 10:48:00,
2013-09-27 12:49:00,77.0,65.6,29.98,WNW,293,8.1,8.1,68,0.00,FEW,,0.00,155.0,WeatherDisplay:10.37,2013-09-27 10:49:00,
2013-09-27 12:51:00,76.8,65.9,29.98,West,259,6.9,6.9,69,0.00,FEW,,0.00,171.0,WeatherDisplay:10.37,2013-09-27 10:51:00,
2013-09-27 12:52:00,76.7,65.8,29.98,WSW,254,5.8,5.8,69,0.00,FEW,,0.00,171.0,WeatherDisplay:10.37,2013-09-27 10:52:00,
2013-09-27 12:53:00,76.6,65.7,29.98,WSW,248,5.8,5.8,69,0.00,FEW,,0.00,156.0,WeatherDisplay:10.37,2013-09-27 10:53:00,
2013-09-27 12:54:00,76.6,65.7,29.98,West,265,3.5,3.5,69,0.00,FEW,,0.00,163.0,WeatherDisplay:10.37,2013-09-27 10:54:00,
2013-09-27 12:57:00,76.5,65.6,29.98,NNE,28,0.0,0.0,69,0.00,SCT,,0.00,192.0,WeatherDisplay:10.37,2013-09-27 10:57:00,
2013-09-27 12:58:00,76.4,65.5,29.98,NNE,28,0.0,0.0,69,0.00,SCT,,0.00,241.0,WeatherDisplay:10.37,2013-09-27 10:58:00,
2013-09-27 12:59:00,76.4,65.5,29.98,NNE,28,0.0,0.0,69,0.00,SCT,,0.00,241.0,WeatherDisplay:10.37,2013-09-27 10:59:00,
2013-09-27 13:02:00,76.5,66.0,29.98,NNE,20,0.0,0.0,70,0.00,FEW,,0.00,214.0,WeatherDisplay:10.37,2013-09-27 11:02:00,
2013-09-27 13:03:00,76.5,66.0,29.98,NNE,30,3.5,3.5,70,0.00,FEW,,0.00,214.0,WeatherDisplay:10.37,2013-09-27 11:03:00,
2013-09-27 13:04:00,76.4,65.5,29.98,NNE,30,3.5,3.5,69,0.00,FEW,,0.00,176.0,WeatherDisplay:10.37,2013-09-27 11:04:00,
2013-09-27 13:07:00,76.5,66.0,29.97,WNW,299,3.5,3.5,70,0.00,FEW,,0.00,162.0,WeatherDisplay:10.37,2013-09-27 11:07:00,
2013-09-27 13:08:00,76.5,66.0,29.97,WNW,299,0.0,0.0,70,0.00,FEW,,0.00,162.0,WeatherDisplay:10.37,2013-09-27 11:08:00,
2013-09-27 13:09:00,76.5,66.0,29.97,WNW,300,0.0,0.0,70,0.00,SCT,,0.00,160.0,WeatherDisplay:10.37,2013-09-27 11:09:00,
2013-09-27 13:13:00,76.6,66.1,29.98,NW,321,0.0,0.0,70,0.00,SCT,,0.00,225.0,WeatherDisplay:10.37,2013-09-27 11:13:00,
2013-09-27 13:14:00,76.7,66.2,29.97,NW,312,0.0,0.0,70,0.00,SCT,,0.00,232.0,WeatherDisplay:10.37,2013-09-27 11:14:00,
2013-09-27 13:18:00,76.8,65.9,29.97,WNW,297,7.0,7.0,69,0.00,SCT,,0.00,176.0,WeatherDisplay:10.37,2013-09-27 11:18:00,
2013-09-27 13:19:00,76.8,65.9,29.97,NW,316,9.2,9.2,69,0.00,SCT,,0.00,162.0,WeatherDisplay:10.37,2013-09-27 11:19:00,
2013-09-27 13:23:00,76.8,66.3,29.97,West,281,5.8,5.8,70,0.00,SCT,,0.00,114.0,WeatherDisplay:10.37,2013-09-27 11:23:00,
2013-09-27 13:24:00,76.8,66.3,29.97,West,281,4.6,4.6,70,0.00,SCT,,0.00,114.0,WeatherDisplay:10.37,2013-09-27 11:24:00,
2013-09-27 13:25:00,76.8,66.3,29.97,West,281,2.3,2.3,70,0.00,SCT,,0.00,114.0,WeatherDisplay:10.37,2013-09-27 11:25:00,
2013-09-27 13:28:00,76.7,66.2,29.98,NW,309,10.4,10.4,70,0.00,SCT,,0.00,109.0,WeatherDisplay:10.37,2013-09-27 11:28:00,
2013-09-27 13:29:00,76.6,66.1,29.97,WNW,293,6.9,6.9,70,0.00,SCT,,0.00,109.0,WeatherDisplay:10.37,2013-09-27 11:29:00,
2013-09-27 13:30:00,76.6,66.1,29.97,WNW,288,8.1,8.1,70,0.00,SCT,,0.00,121.0,WeatherDisplay:10.37,2013-09-27 11:30:00,
2013-09-27 13:33:00,76.4,65.9,29.97,WNW,284,4.6,4.6,70,0.00,SCT,,0.00,114.0,WeatherDisplay:10.37,2013-09-27 11:33:00,
2013-09-27 13:34:00,76.4,65.9,29.97,WSW,255,7.0,7.0,70,0.00,SCT,,0.00,113.0,WeatherDisplay:10.37,2013-09-27 11:34:00,
2013-09-27 13:35:00,76.4,65.9,29.97,West,263,6.9,6.9,70,0.00,SCT,,0.00,113.0,WeatherDisplay:10.37,2013-09-27 11:35:00,
2013-09-27 13:39:00,76.4,65.9,29.97,West,271,5.8,5.8,70,0.00,SCT,,0.00,135.0,WeatherDisplay:10.37,2013-09-27 11:39:00,
2013-09-27 13:40:00,76.4,65.9,29.97,West,275,5.8,5.8,70,0.00,SCT,,0.00,135.0,WeatherDisplay:10.37,2013-09-27 11:40:00,
2013-09-27 13:41:00,76.5,66.0,29.97,West,271,3.5,3.5,70,0.00,FEW,,0.00,652.0,WeatherDisplay:10.37,2013-09-27 11:41:00,
2013-09-27 13:44:00,76.9,66.4,29.97,West,277,2.0,2.0,70,0.00,FEW,,0.00,652.0,WeatherDisplay:10.37,2013-09-27 11:44:00,
2013-09-27 13:45:00,77.0,66.5,29.97,WSW,254,3.5,3.5,70,0.00,FEW,,0.00,652.0,WeatherDisplay:10.37,2013-09-27 11:45:00,
2013-09-27 13:46:00,77.2,66.7,29.97,West,261,2.3,0.0,70,0.00,FEW,,0.00,652.0,WeatherDisplay:10.37,2013-09-27 11:46:00,
2013-09-27 13:49:00,77.4,66.4,29.97,South,179,0.0,0.0,69,0.00,CLR,,0.00,172.0,WeatherDisplay:10.37,2013-09-27 11:49:00,
2013-09-27 13:50:00,77.5,66.5,29.97,SW,222,1.2,1.2,69,0.00,CLR,,0.00,179.0,WeatherDisplay:10.37,2013-09-27 11:50:00,
2013-09-27 13:51:00,77.6,66.2,29.97,WSW,243,0.0,0.2,68,0.00,FEW,,0.00,192.0,WeatherDisplay:10.37,2013-09-27 11:51:00,
2013-09-27 13:52:00,77.6,66.2,29.97,WSW,240,6.0,6.0,68,0.00,FEW,,0.00,202.0,WeatherDisplay:10.37,2013-09-27 11:52:00,
2013-09-27 13:54:00,77.7,66.3,29.97,WNW,282,9.2,9.2,68,0.00,FEW,,0.00,202.0,WeatherDisplay:10.37,2013-09-27 11:54:00,
2013-09-27 13:55:00,77.7,66.3,29.97,West,274,10.4,10.4,68,0.00,FEW,,0.00,202.0,WeatherDisplay:10.37,2013-09-27 11:55:00,
2013-09-27 13:56:00,77.7,66.3,29.97,West,280,10.4,10.4,68,0.00,FEW,,0.00,202.0,WeatherDisplay:10.37,2013-09-27 11:56:00,
2013-09-27 13:57:00,77.6,65.8,29.97,West,271,10.4,10.4,67,0.00,FEW,,0.00,120.0,WeatherDisplay:10.37,2013-09-27 11:57:00,
2013-09-27 14:01:00,77.4,66.0,29.97,West,269,8.1,8.1,68,0.00,SCT,,0.00,130.0,WeatherDisplay:10.37,2013-09-27 12:01:00,
2013-09-27 14:02:00,77.4,66.0,29.97,WSW,251,8.1,8.1,68,0.00,SCT,,0.00,132.0,WeatherDisplay:10.37,2013-09-27 12:02:00,
2013-09-27 14:03:00,77.4,66.0,29.96,West,263,6.9,6.9,68,0.00,SCT,,0.00,132.0,WeatherDisplay:10.37,2013-09-27 12:03:00,
2013-09-27 14:06:00,77.3,65.9,29.97,WNW,288,8.1,8.1,68,0.00,SCT,,0.00,135.0,WeatherDisplay:10.37,2013-09-27 12:06:00,
2013-09-27 14:07:00,77.3,65.9,29.97,WNW,298,8.1,8.1,68,0.00,SCT,,0.00,139.0,WeatherDisplay:10.37,2013-09-27 12:07:00,
2013-09-27 14:08:00,77.3,65.9,29.97,WSW,257,8.1,8.1,68,0.00,SCT,,0.00,121.0,WeatherDisplay:10.37,2013-09-27 12:08:00,
2013-09-27 14:11:00,77.3,65.9,29.96,West,274,7.0,7.0,68,0.00,SCT,,0.00,109.0,WeatherDisplay:10.37,2013-09-27 12:11:00,
2013-09-27 14:12:00,77.2,65.8,29.96,West,272,8.1,8.1,68,0.00,SCT,,0.00,109.0,WeatherDisplay:10.37,2013-09-27 12:12:00,
2013-09-27 14:13:00,77.2,65.8,29.96,West,266,7.0,7.0,68,0.00,SCT,,0.00,114.0,WeatherDisplay:10.37,2013-09-27 12:13:00,
2013-09-27 14:16:00,77.1,65.7,29.96,WNW,292,11.5,11.5,68,0.00,SCT,,0.00,134.0,WeatherDisplay:10.37,2013-09-27 12:16:00,
2013-09-27 14:17:00,77.1,65.7,29.96,WNW,293,9.2,9.2,68,0.00,SCT,,0.00,134.0,WeatherDisplay:10.37,2013-09-27 12:17:00,
2013-09-27 14:18:00,77.1,65.7,29.96,West,261,8.1,8.1,68,0.00,SCT,,0.00,134.0,WeatherDisplay:10.37,2013-09-27 12:18:00,
2013-09-27 14:22:00,77.0,65.6,29.96,West,259,9.2,9.2,68,0.00,SCT,,0.00,141.0,WeatherDisplay:10.37,2013-09-27 12:22:00,
2013-09-27 14:23:00,77.0,65.6,29.96,West,279,10.4,10.4,68,0.00,SCT,,0.00,144.0,WeatherDisplay:10.37,2013-09-27 12:23:00,
2013-09-27 14:24:00,77.0,65.6,29.96,West,269,10.4,10.4,68,0.00,SCT,,0.00,144.0,WeatherDisplay:10.37,2013-09-27 12:24:00,
2013-09-27 14:27:00,77.2,65.8,29.96,WNW,298,5.8,5.8,68,0.00,SCT,,0.00,185.0,WeatherDisplay:10.37,2013-09-27 12:27:00,
2013-09-27 14:28:00,77.2,65.8,29.96,WSW,258,5.8,5.8,68,0.00,SCT,,0.00,160.0,WeatherDisplay:10.37,2013-09-27 12:28:00,
2013-09-27 14:29:00,77.3,65.9,29.96,West,275,8.1,8.1,68,0.00,SCT,,0.00,160.0,WeatherDisplay:10.37,2013-09-27 12:29:00,
2013-09-27 14:33:00,77.4,66.0,29.96,WSW,257,10.4,10.4,68,0.00,SCT,,0.00,190.0,WeatherDisplay:10.37,2013-09-27 12:33:00,
2013-09-27 14:34:00,77.4,65.6,29.96,WSW,244,10.4,10.4,67,0.00,SCT,,0.00,146.0,WeatherDisplay:10.37,2013-09-27 12:34:00,
2013-09-27 14:35:00,77.4,65.6,29.96,WSW,244,10.4,10.4,67,0.00,SCT,,0.00,146.0,WeatherDisplay:10.37,2013-09-27 12:35:00,
2013-09-27 14:38:00,77.4,65.1,29.96,West,265,10.4,10.4,66,0.00,SCT,,0.00,134.0,WeatherDisplay:10.37,2013-09-27 12:38:00,
2013-09-27 14:39:00,77.4,65.1,29.96,West,265,10.4,10.4,66,0.00,SCT,,0.00,134.0,WeatherDisplay:10.37,2013-09-27 12:39:00,
2013-09-27 14:40:00,77.4,65.1,29.96,West,274,10.4,10.4,66,0.00,SCT,,0.00,128.0,WeatherDisplay:10.37,2013-09-27 12:40:00,
2013-09-27 14:43:00,77.4,65.1,29.96,West,274,8.1,8.1,66,0.00,SCT,,0.00,132.0,WeatherDisplay:10.37,2013-09-27 12:43:00,
2013-09-27 14:44:00,77.6,65.3,29.96,NW,307,9.0,9.0,66,0.00,SCT,,0.00,503.0,WeatherDisplay:10.37,2013-09-27 12:44:00,
2013-09-27 14:45:00,77.6,65.8,29.96,West,274,10.4,10.4,67,0.00,FEW,,0.00,503.0,WeatherDisplay:10.37,2013-09-27 12:45:00,
2013-09-27 14:46:00,77.7,65.9,29.96,West,259,11.5,11.5,67,0.00,FEW,,0.00,181.0,WeatherDisplay:10.37,2013-09-27 12:46:00,
2013-09-27 14:48:00,77.8,66.0,29.96,West,280,8.1,8.1,67,0.00,FEW,,0.00,179.0,WeatherDisplay:10.37,2013-09-27 12:48:00,
2013-09-27 14:50:00,77.8,65.5,29.96,West,266,10.4,10.4,66,0.00,FEW,,0.00,179.0,WeatherDisplay:10.37,2013-09-27 12:50:00,
2013-09-27 14:51:00,77.8,65.5,29.96,WNW,296,11.5,11.5,66,0.00,FEW,,0.00,274.0,WeatherDisplay:10.37,2013-09-27 12:51:00,
2013-09-27 14:53:00,77.9,65.6,29.96,WSW,248,11.5,11.5,66,0.00,FEW,,0.00,601.0,WeatherDisplay:10.37,2013-09-27 12:53:00,
2013-09-27 14:55:00,78.0,64.8,29.96,SW,230,10.0,10.0,64,0.00,FEW,,0.00,564.0,WeatherDisplay:10.37,2013-09-27 12:55:00,
2013-09-27 14:56:00,78.2,65.0,29.96,SW,233,11.5,11.5,64,0.00,FEW,,0.00,489.0,WeatherDisplay:10.37,2013-09-27 12:56:00,
2013-09-27 14:58:00,78.4,65.7,29.96,West,274,11.5,11.5,65,0.00,FEW,,0.00,178.0,WeatherDisplay:10.37,2013-09-27 12:58:00,
2013-09-27 15:01:00,78.5,65.8,29.96,WSW,243,13.8,13.8,65,0.00,FEW,,0.00,155.0,WeatherDisplay:10.37,2013-09-27 13:01:00,
2013-09-27 15:04:00,78.4,65.7,29.96,WSW,258,10.4,10.4,65,0.00,FEW,,0.00,169.0,WeatherDisplay:10.37,2013-09-27 13:04:00,
2013-09-27 15:06:00,78.4,65.7,29.96,WSW,244,10.4,10.4,65,0.00,FEW,,0.00,188.0,WeatherDisplay:10.37,2013-09-27 13:06:00,
2013-09-27 15:08:00,78.4,65.7,29.96,West,275,9.2,9.2,65,0.00,SCT,,0.00,239.0,WeatherDisplay:10.37,2013-09-27 13:08:00,
2013-09-27 15:09:00,78.5,65.8,29.96,West,275,8.1,8.1,65,0.00,SCT,,0.00,309.0,WeatherDisplay:10.37,2013-09-27 13:09:00,
2013-09-27 15:11:00,78.6,65.8,29.96,WSW,242,13.0,13.0,65,0.00,FEW,,0.00,309.0,WeatherDisplay:10.37,2013-09-27 13:11:00,
2013-09-27 15:12:00,78.6,65.8,29.96,West,259,12.7,12.7,65,0.00,FEW,,0.00,309.0,WeatherDisplay:10.37,2013-09-27 13:12:00,
2013-09-27 15:13:00,78.6,65.8,29.96,West,264,11.5,11.5,65,0.00,FEW,,0.00,309.0,WeatherDisplay:10.37,2013-09-27 13:13:00,
2013-09-27 15:14:00,78.6,65.8,29.96,West,259,9.2,9.2,65,0.00,FEW,,0.00,309.0,WeatherDisplay:10.37,2013-09-27 13:14:00,
2013-09-27 15:16:00,78.6,65.8,29.96,West,272,10.4,10.4,65,0.00,FEW,,0.00,309.0,WeatherDisplay:10.37,2013-09-27 13:16:00,
2013-09-27 15:17:00,78.6,65.8,29.96,West,265,9.2,9.2,65,0.00,FEW,,0.00,156.0,WeatherDisplay:10.37,2013-09-27 13:17:00,
2013-09-27 15:19:00,78.6,65.8,29.96,West,270,11.5,11.5,65,0.00,FEW,,0.00,178.0,WeatherDisplay:10.37,2013-09-27 13:19:00,
2013-09-27 15:21:00,78.5,65.8,29.96,West,269,10.4,10.4,65,0.00,FEW,,0.00,192.0,WeatherDisplay:10.37,2013-09-27 13:21:00,
2013-09-27 15:22:00,78.6,65.8,29.96,WNW,283,8.1,8.1,65,0.00,FEW,,0.00,192.0,WeatherDisplay:10.37,2013-09-27 13:22:00,
2013-09-27 15:23:00,78.6,66.3,29.96,WSW,242,13.8,13.8,66,0.00,FEW,,0.00,192.0,WeatherDisplay:10.37,2013-09-27 13:23:00,
2013-09-27 15:24:00,78.6,66.3,29.96,West,273,11.5,11.5,66,0.00,FEW,,0.00,192.0,WeatherDisplay:10.37,2013-09-27 13:24:00,
2013-09-27 15:26:00,78.6,66.3,29.96,WSW,257,12.7,12.7,66,0.00,FEW,,0.00,315.0,WeatherDisplay:10.37,2013-09-27 13:26:00,
2013-09-27 15:27:00,78.6,66.7,29.96,WSW,250,12.7,12.7,67,0.00,FEW,,0.00,552.0,WeatherDisplay:10.37,2013-09-27 13:27:00,
2013-09-27 15:28:00,78.7,66.8,29.96,West,269,12.7,12.7,67,0.00,FEW,,0.00,552.0,WeatherDisplay:10.37,2013-09-27 13:28:00,
2013-09-27 15:29:00,78.7,66.8,29.95,WNW,300,10.4,10.4,67,0.00,FEW,,0.00,552.0,WeatherDisplay:10.37,2013-09-27 13:29:00,
2013-09-27 15:32:00,78.7,66.4,29.96,WSW,250,17.3,17.3,66,0.00,FEW,,0.00,552.0,WeatherDisplay:10.37,2013-09-27 13:32:00,
2013-09-27 15:33:00,78.6,66.3,29.96,WSW,258,17.3,17.3,66,0.00,FEW,,0.00,552.0,WeatherDisplay:10.37,2013-09-27 13:33:00,
2013-09-27 15:34:00,78.6,66.3,29.96,West,259,15.0,15.0,66,0.00,FEW,,0.00,508.0,WeatherDisplay:10.37,2013-09-27 13:34:00,
2013-09-27 15:35:00,78.6,66.3,29.96,West,263,15.0,15.0,66,0.00,CLR,,0.00,508.0,WeatherDisplay:10.37,2013-09-27 13:35:00,
2013-09-27 15:37:00,78.6,66.7,29.96,WSW,257,13.8,13.8,67,0.00,CLR,,0.00,468.0,WeatherDisplay:10.37,2013-09-27 13:37:00,
2013-09-27 15:38:00,78.6,66.3,29.96,WSW,250,14.0,14.0,66,0.00,CLR,,0.00,497.0,WeatherDisplay:10.37,2013-09-27 13:38:00,
2013-09-27 15:39:00,78.6,66.3,29.96,West,270,15.0,15.0,66,0.00,CLR,,0.00,466.0,WeatherDisplay:10.37,2013-09-27 13:39:00,
2013-09-27 15:40:00,78.6,66.3,29.96,SSW,213,12.7,12.7,66,0.00,CLR,,0.00,406.0,WeatherDisplay:10.37,2013-09-27 13:40:00,
2013-09-27 15:42:00,78.6,66.3,29.96,West,264,13.8,13.8,66,0.00,CLR,,0.00,411.0,WeatherDisplay:10.37,2013-09-27 13:42:00,
2013-09-27 15:44:00,78.6,66.3,29.96,WSW,257,16.1,16.1,66,0.00,CLR,,0.00,473.0,WeatherDisplay:10.37,2013-09-27 13:44:00,
2013-09-27 15:45:00,78.6,66.3,29.96,WSW,257,13.8,13.8,66,0.00,CLR,,0.00,466.0,WeatherDisplay:10.37,2013-09-27 13:45:00,
2013-09-27 15:47:00,78.6,66.7,29.96,SW,236,12.7,12.7,67,0.00,CLR,,0.00,464.0,WeatherDisplay:10.37,2013-09-27 13:47:00,
2013-09-27 15:49:00,78.6,66.7,29.96,SW,234,15.0,15.0,67,0.00,CLR,,0.00,461.0,WeatherDisplay:10.37,2013-09-27 13:49:00,
2013-09-27 15:50:00,78.6,66.7,29.96,WSW,250,15.0,15.0,67,0.00,CLR,,0.00,459.0,WeatherDisplay:10.37,2013-09-27 13:50:00,
2013-09-27 15:51:00,78.7,66.8,29.96,West,273,11.5,11.5,67,0.00,CLR,,0.00,455.0,WeatherDisplay:10.37,2013-09-27 13:51:00,
2013-09-27 15:52:00,78.7,66.4,29.95,West,265,11.5,11.5,66,0.00,CLR,,0.00,452.0,WeatherDisplay:10.37,2013-09-27 13:52:00,
2013-09-27 15:54:00,78.8,66.5,29.96,WSW,248,16.1,16.1,66,0.00,CLR,,0.00,452.0,WeatherDisplay:10.37,2013-09-27 13:54:00,
2013-09-27 15:55:00,78.8,66.5,29.96,WSW,246,11.5,11.5,66,0.00,CLR,,0.00,459.0,WeatherDisplay:10.37,2013-09-27 13:55:00,
2013-09-27 15:56:00,78.8,66.0,29.96,WSW,257,18.0,18.0,65,0.00,CLR,,0.00,459.0,WeatherDisplay:10.37,2013-09-27 13:56:00,
2013-09-27 15:57:00,78.6,65.8,29.96,WSW,241,18.4,18.4,65,0.00,CLR,,0.00,102.0,WeatherDisplay:10.37,2013-09-27 13:57:00,
2013-09-27 15:59:00,78.4,65.7,29.96,West,260,13.8,13.8,65,0.00,FEW,,0.00,111.0,WeatherDisplay:10.37,2013-09-27 13:59:00,
2013-09-27 16:01:00,78.3,65.6,29.96,SSE,168,9.2,9.2,65,0.00,FEW,,0.00,434.0,WeatherDisplay:10.37,2013-09-27 14:01:00,
2013-09-27 16:03:00,78.4,65.7,29.96,WNW,282,11.5,11.5,65,0.00,FEW,,0.00,446.0,WeatherDisplay:10.37,2013-09-27 14:03:00,
2013-09-27 16:04:00,78.5,65.8,29.96,West,263,16.1,16.1,65,0.00,FEW,,0.00,446.0,WeatherDisplay:10.37,2013-09-27 14:04:00,
2013-09-27 16:06:00,78.5,66.2,29.96,West,281,11.5,11.5,66,0.00,FEW,,0.00,446.0,WeatherDisplay:10.37,2013-09-27 14:06:00,
2013-09-27 16:07:00,78.5,66.6,29.96,West,262,11.5,11.5,67,0.00,FEW,,0.00,446.0,WeatherDisplay:10.37,2013-09-27 14:07:00,
2013-09-27 16:08:00,78.4,66.5,29.95,SW,229,10.4,10.4,67,0.00,FEW,,0.00,422.0,WeatherDisplay:10.37,2013-09-27 14:08:00,
2013-09-27 16:09:00,78.5,66.6,29.95,WSW,245,11.5,11.5,67,0.00,FEW,,0.00,404.0,WeatherDisplay:10.37,2013-09-27 14:09:00,
2013-09-27 16:11:00,78.5,66.6,29.95,WSW,250,12.7,12.7,67,0.00,CLR,,0.00,403.0,WeatherDisplay:10.37,2013-09-27 14:11:00,
2013-09-27 16:12:00,78.6,66.7,29.95,SSW,213,10.4,10.4,67,0.00,CLR,,0.00,403.0,WeatherDisplay:10.37,2013-09-27 14:12:00,
2013-09-27 16:13:00,78.6,66.7,29.95,WSW,253,10.0,10.0,67,0.00,FEW,,0.00,118.0,WeatherDisplay:10.37,2013-09-27 14:13:00,
2013-09-27 16:15:00,78.5,66.6,29.95,WSW,255,13.8,13.8,67,0.00,FEW,,0.00,118.0,WeatherDisplay:10.37,2013-09-27 14:15:00,
2013-09-27 16:17:00,78.3,66.9,29.95,West,260,9.2,9.2,68,0.00,FEW,,0.00,118.0,WeatherDisplay:10.37,2013-09-27 14:17:00,
2013-09-27 16:18:00,78.4,67.0,29.95,WSW,254,10.0,10.0,68,0.00,FEW,,0.00,427.0,WeatherDisplay:10.37,2013-09-27 14:18:00,
2013-09-27 16:20:00,78.4,66.5,29.95,WSW,252,16.1,16.1,67,0.00,FEW,,0.00,436.0,WeatherDisplay:10.37,2013-09-27 14:20:00,
2013-09-27 16:22:00,78.5,66.6,29.96,SW,233,15.0,15.0,67,0.00,FEW,,0.00,385.0,WeatherDisplay:10.37,2013-09-27 14:22:00,
2013-09-27 16:23:00,78.5,66.6,29.96,WSW,258,16.1,16.1,67,0.00,FEW,,0.00,385.0,WeatherDisplay:10.37,2013-09-27 14:23:00,
2013-09-27 16:24:00,78.4,66.5,29.96,WSW,250,15.0,15.0,67,0.00,FEW,,0.00,397.0,WeatherDisplay:10.37,2013-09-27 14:24:00,
2013-09-27 16:25:00,78.3,66.9,29.95,WSW,252,12.7,12.7,68,0.00,FEW,,0.00,373.0,WeatherDisplay:10.37,2013-09-27 14:25:00,
2013-09-27 16:28:00,78.3,66.4,29.95,SW,227,15.0,15.0,67,0.00,FEW,,0.00,371.0,WeatherDisplay:10.37,2013-09-27 14:28:00,
2013-09-27 16:29:00,78.3,66.4,29.95,West,268,10.4,10.4,67,0.00,CLR,,0.00,371.0,WeatherDisplay:10.37,2013-09-27 14:29:00,
2013-09-27 16:31:00,78.2,66.3,29.95,West,273,8.1,8.1,67,0.00,CLR,,0.00,346.0,WeatherDisplay:10.37,2013-09-27 14:31:00,
2013-09-27 16:33:00,78.1,66.2,29.95,West,274,11.0,11.0,67,0.00,FEW,,0.00,352.0,WeatherDisplay:10.37,2013-09-27 14:33:00,
2013-09-27 16:34:00,78.1,66.2,29.95,WSW,250,11.5,11.5,67,0.00,FEW,,0.00,364.0,WeatherDisplay:10.37,2013-09-27 14:34:00,
2013-09-27 16:36:00,78.3,66.9,29.95,SW,229,8.1,8.1,68,0.00,FEW,,0.00,371.0,WeatherDisplay:10.37,2013-09-27 14:36:00,
2013-09-27 16:38:00,78.6,66.7,29.95,WSW,256,11.0,11.0,67,0.00,CLR,,0.00,371.0,WeatherDisplay:10.37,2013-09-27 14:38:00,
2013-09-27 16:39:00,78.6,66.7,29.95,WSW,242,16.1,16.1,67,0.00,CLR,,0.00,371.0,WeatherDisplay:10.37,2013-09-27 14:39:00,
2013-09-27 16:41:00,78.6,66.7,29.95,WSW,247,12.7,12.7,67,0.00,CLR,,0.00,371.0,WeatherDisplay:10.37,2013-09-27 14:41:00,
2013-09-27 16:42:00,78.4,66.5,29.95,WSW,251,11.5,11.5,67,0.00,CLR,,0.00,371.0,WeatherDisplay:10.37,2013-09-27 14:42:00,
2013-09-27 16:43:00,78.3,66.9,29.95,WSW,250,11.5,11.5,68,0.00,CLR,,0.00,332.0,WeatherDisplay:10.37,2013-09-27 14:43:00,
2013-09-27 16:44:00,78.3,66.9,29.95,WSW,247,11.5,11.5,68,0.00,CLR,,0.00,339.0,WeatherDisplay:10.37,2013-09-27 14:44:00,
2013-09-27 16:45:00,78.2,66.8,29.95,West,261,11.5,11.5,68,0.00,CLR,,0.00,345.0,WeatherDisplay:10.37,2013-09-27 14:45:00,
2013-09-27 16:46:00,78.2,66.8,29.95,SSW,198,8.1,8.1,68,0.00,CLR,,0.00,343.0,WeatherDisplay:10.37,2013-09-27 14:46:00,
2013-09-27 16:47:00,78.2,66.8,29.95,SW,236,14.0,14.0,68,0.00,CLR,,0.00,343.0,WeatherDisplay:10.37,2013-09-27 14:47:00,
2013-09-27 16:48:00,78.2,66.8,29.95,SW,229,13.8,13.8,68,0.00,CLR,,0.00,343.0,WeatherDisplay:10.37,2013-09-27 14:48:00,
2013-09-27 16:49:00,78.2,66.3,29.95,West,271,12.7,12.7,67,0.00,CLR,,0.00,343.0,WeatherDisplay:10.37,2013-09-27 14:49:00,
2013-09-27 16:50:00,78.2,66.3,29.95,WSW,245,12.7,12.7,67,0.00,CLR,,0.00,306.0,WeatherDisplay:10.37,2013-09-27 14:50:00,
2013-09-27 16:51:00,78.2,66.3,29.95,WNW,290,13.8,13.8,67,0.00,CLR,,0.00,294.0,WeatherDisplay:10.37,2013-09-27 14:51:00,
2013-09-27 16:52:00,78.1,66.2,29.95,WSW,248,11.5,11.5,67,0.00,FEW,,0.00,290.0,WeatherDisplay:10.37,2013-09-27 14:52:00,
2013-09-27 16:54:00,78.1,66.2,29.96,West,268,10.4,10.4,67,0.00,FEW,,0.00,281.0,WeatherDisplay:10.37,2013-09-27 14:54:00,
2013-09-27 16:55:00,78.1,66.7,29.96,WSW,241,10.4,10.4,68,0.00,FEW,,0.00,278.0,WeatherDisplay:10.37,2013-09-27 14:55:00,
2013-09-27 16:56:00,78.1,66.2,29.95,WSW,256,12.7,12.7,67,0.00,FEW,,0.00,276.0,WeatherDisplay:10.37,2013-09-27 14:56:00,
2013-09-27 16:58:00,78.1,66.7,29.96,SW,225,11.5,11.5,68,0.00,FEW,,0.00,272.0,WeatherDisplay:10.37,2013-09-27 14:58:00,
2013-09-27 16:59:00,78.2,66.3,29.96,SW,231,11.5,11.5,67,0.00,FEW,,0.00,272.0,WeatherDisplay:10.37,2013-09-27 14:59:00,
2013-09-27 17:01:00,78.0,66.2,29.96,West,269,11.5,11.5,67,0.00,FEW,,0.00,227.0,WeatherDisplay:10.37,2013-09-27 15:01:00,
2013-09-27 17:03:00,77.9,66.5,29.96,West,261,11.5,11.5,68,0.00,FEW,,0.00,237.0,WeatherDisplay:10.37,2013-09-27 15:03:00,
2013-09-27 17:05:00,77.8,66.4,29.95,SW,233,9.2,9.2,68,0.00,FEW,,0.00,246.0,WeatherDisplay:10.37,2013-09-27 15:05:00,
2013-09-27 17:06:00,77.7,66.3,29.96,SW,216,12.0,12.0,68,0.00,FEW,,0.00,246.0,WeatherDisplay:10.37,2013-09-27 15:06:00,
2013-09-27 17:08:00,77.7,66.7,29.96,West,279,11.5,11.5,69,0.00,FEW,,0.00,91.0,WeatherDisplay:10.37,2013-09-27 15:08:00,
2013-09-27 17:10:00,77.7,66.7,29.95,WSW,239,11.5,11.5,69,0.00,FEW,,0.00,169.0,WeatherDisplay:10.37,2013-09-27 15:10:00,
2013-09-27 17:12:00,77.5,66.5,29.96,West,279,10.4,10.4,69,0.00,FEW,,0.00,160.0,WeatherDisplay:10.37,2013-09-27 15:12:00,
2013-09-27 17:13:00,77.4,66.4,29.96,SW,224,11.5,11.5,69,0.00,FEW,,0.00,160.0,WeatherDisplay:10.37,2013-09-27 15:13:00,
2013-09-27 17:15:00,77.4,66.4,29.95,WNW,284,9.2,9.2,69,0.00,FEW,,0.00,90.0,WeatherDisplay:10.37,2013-09-27 15:15:00,
2013-09-27 17:16:00,77.3,66.3,29.95,WSW,243,11.0,11.0,69,0.00,FEW,,0.00,83.0,WeatherDisplay:10.37,2013-09-27 15:16:00,
2013-09-27 17:17:00,77.3,66.3,29.95,SW,229,11.5,11.5,69,0.00,FEW,,0.00,83.0,WeatherDisplay:10.37,2013-09-27 15:17:00,
2013-09-27 17:18:00,77.2,66.2,29.95,WSW,258,11.5,11.5,69,0.00,FEW,,0.00,148.0,WeatherDisplay:10.37,2013-09-27 15:18:00,
2013-09-27 17:19:00,77.2,66.2,29.95,WSW,258,8.1,8.1,69,0.00,FEW,,0.00,148.0,WeatherDisplay:10.37,2013-09-27 15:19:00,
2013-09-27 17:20:00,77.3,66.3,29.95,WSW,258,10.4,10.4,69,0.00,FEW,,0.00,190.0,WeatherDisplay:10.37,2013-09-27 15:20:00,
2013-09-27 17:22:00,77.2,66.2,29.95,WSW,254,9.2,9.2,69,0.00,FEW,,0.00,190.0,WeatherDisplay:10.37,2013-09-27 15:22:00,
2013-09-27 17:24:00,77.2,66.2,29.96,WSW,243,12.7,12.7,69,0.00,FEW,,0.00,190.0,WeatherDisplay:10.37,2013-09-27 15:24:00,
2013-09-27 17:25:00,77.1,66.1,29.96,SW,232,11.5,11.5,69,0.00,FEW,,0.00,69.0,WeatherDisplay:10.37,2013-09-27 15:25:00,
2013-09-27 17:27:00,77.0,66.5,29.96,WSW,248,11.5,11.5,70,0.00,FEW,,0.00,155.0,WeatherDisplay:10.37,2013-09-27 15:27:00,
2013-09-27 17:30:00,76.8,65.9,29.96,SW,236,11.5,11.5,69,0.00,FEW,,0.00,158.0,WeatherDisplay:10.37,2013-09-27 15:30:00,
2013-09-27 17:32:00,76.7,66.2,29.96,West,270,11.5,11.5,70,0.00,FEW,,0.00,153.0,WeatherDisplay:10.37,2013-09-27 15:32:00,
2013-09-27 17:35:00,76.6,66.1,29.96,West,275,11.5,11.5,70,0.00,FEW,,0.00,146.0,WeatherDisplay:10.37,2013-09-27 15:35:00,
2013-09-27 17:36:00,76.6,66.1,29.96,WSW,256,11.0,11.0,70,0.00,FEW,,0.00,146.0,WeatherDisplay:10.37,2013-09-27 15:36:00,
2013-09-27 17:37:00,76.6,66.1,29.96,West,265,11.5,11.5,70,0.00,FEW,,0.00,146.0,WeatherDisplay:10.37,2013-09-27 15:37:00,
2013-09-27 17:38:00,76.6,66.1,29.96,WSW,254,10.4,10.4,70,0.00,FEW,,0.00,130.0,WeatherDisplay:10.37,2013-09-27 15:38:00,
2013-09-27 17:41:00,76.5,66.0,29.96,WSW,243,11.5,11.5,70,0.00,FEW,,0.00,58.0,WeatherDisplay:10.37,2013-09-27 15:41:00,
2013-09-27 17:42:00,76.5,66.0,29.96,SW,235,11.5,11.5,70,0.00,FEW,,0.00,56.0,WeatherDisplay:10.37,2013-09-27 15:42:00,
2013-09-27 17:43:00,76.5,66.0,29.96,SW,223,10.4,10.4,70,0.00,FEW,,0.00,56.0,WeatherDisplay:10.37,2013-09-27 15:43:00,
2013-09-27 17:46:00,76.5,66.4,29.96,SW,227,10.4,10.4,71,0.00,FEW,,0.00,54.0,WeatherDisplay:10.37,2013-09-27 15:46:00,
2013-09-27 17:47:00,76.4,66.3,29.96,WSW,239,11.5,11.5,71,0.00,SCT,,0.00,76.0,WeatherDisplay:10.37,2013-09-27 15:47:00,
2013-09-27 17:49:00,76.4,66.3,29.96,WSW,241,9.2,9.2,71,0.00,SCT,,0.00,84.0,WeatherDisplay:10.37,2013-09-27 15:49:00,
2013-09-27 17:51:00,76.3,66.6,29.96,WSW,238,11.5,11.5,72,0.00,SCT,,0.00,79.0,WeatherDisplay:10.37,2013-09-27 15:51:00,
2013-09-27 17:53:00,76.3,66.6,29.96,WSW,238,9.2,9.2,72,0.00,FEW,,0.00,86.0,WeatherDisplay:10.37,2013-09-27 15:53:00,
2013-09-27 17:54:00,76.3,66.6,29.96,WSW,246,8.1,8.1,72,0.00,FEW,,0.00,90.0,WeatherDisplay:10.37,2013-09-27 15:54:00,
2013-09-27 17:57:00,76.3,66.6,29.96,SW,227,10.4,10.4,72,0.00,FEW,,0.00,81.0,WeatherDisplay:10.37,2013-09-27 15:57:00,
2013-09-27 17:58:00,76.3,66.6,29.96,WSW,242,11.5,11.5,72,0.00,FEW,,0.00,70.0,WeatherDisplay:10.37,2013-09-27 15:58:00,
2013-09-27 18:00:00,76.2,66.5,29.96,West,271,11.5,11.5,72,0.00,FEW,,0.00,69.0,WeatherDisplay:10.37,2013-09-27 16:00:00,
2013-09-27 18:02:00,76.1,66.4,29.96,WNW,282,11.5,11.5,72,0.00,FEW,,0.00,60.0,WeatherDisplay:10.37,2013-09-27 16:02:00,
2013-09-27 18:03:00,76.1,66.4,29.96,West,267,11.0,11.0,72,0.00,FEW,,0.00,58.0,WeatherDisplay:10.37,2013-09-27 16:03:00,
2013-09-27 18:04:00,76.1,66.4,29.96,SW,234,11.5,11.5,72,0.00,FEW,,0.00,58.0,WeatherDisplay:10.37,2013-09-27 16:04:00,
2013-09-27 18:06:00,76.0,66.3,29.96,West,259,10.4,10.4,72,0.00,FEW,,0.00,49.0,WeatherDisplay:10.37,2013-09-27 16:06:00,
2013-09-27 18:07:00,75.9,66.2,29.96,WSW,237,11.5,11.5,72,0.00,FEW,,0.00,47.0,WeatherDisplay:10.37,2013-09-27 16:07:00,
2013-09-27 18:08:00,75.9,66.2,29.96,West,261,6.9,6.9,72,0.00,FEW,,0.00,47.0,WeatherDisplay:10.37,2013-09-27 16:08:00,
2013-09-27 18:09:00,75.9,66.2,29.96,SSW,213,8.1,8.1,72,0.00,FEW,,0.00,47.0,WeatherDisplay:10.37,2013-09-27 16:09:00,
2013-09-27 18:11:00,75.9,66.2,29.96,SW,219,9.2,9.2,72,0.00,FEW,,0.00,42.0,WeatherDisplay:10.37,2013-09-27 16:11:00,
2013-09-27 18:12:00,75.9,66.2,29.96,West,266,9.2,9.2,72,0.00,FEW,,0.00,33.0,WeatherDisplay:10.37,2013-09-27 16:12:00,
2013-09-27 18:13:00,75.9,66.2,29.96,SW,214,8.1,8.1,72,0.00,FEW,,0.00,33.0,WeatherDisplay:10.37,2013-09-27 16:13:00,
2013-09-27 18:14:00,75.9,66.2,29.96,SW,214,7.0,7.0,72,0.00,FEW,,0.00,33.0,WeatherDisplay:10.37,2013-09-27 16:14:00,
2013-09-27 18:16:00,75.8,66.1,29.96,West,273,6.9,6.9,72,0.00,FEW,,0.00,30.0,WeatherDisplay:10.37,2013-09-27 16:16:00,
2013-09-27 18:19:00,75.7,66.0,29.96,West,261,10.4,10.4,72,0.00,FEW,,0.00,26.0,WeatherDisplay:10.37,2013-09-27 16:19:00,
2013-09-27 18:20:00,75.7,66.4,29.96,WSW,253,11.5,11.5,73,0.00,FEW,,0.00,26.0,WeatherDisplay:10.37,2013-09-27 16:20:00,
2013-09-27 18:21:00,75.6,66.3,29.96,WSW,246,11.5,11.5,73,0.00,FEW,,0.00,26.0,WeatherDisplay:10.37,2013-09-27 16:21:00,
2013-09-27 18:24:00,75.5,66.2,29.96,SW,232,6.9,6.9,73,0.00,FEW,,0.00,26.0,WeatherDisplay:10.37,2013-09-27 16:24:00,
2013-09-27 18:25:00,75.4,66.5,29.96,WSW,251,11.0,11.0,74,0.00,FEW,,0.00,23.0,WeatherDisplay:10.37,2013-09-27 16:25:00,
2013-09-27 18:27:00,75.4,66.5,29.96,WSW,250,11.5,11.5,74,0.00,FEW,,0.00,23.0,WeatherDisplay:10.37,2013-09-27 16:27:00,
2013-09-27 18:29:00,75.3,66.4,29.96,WSW,251,9.2,9.2,74,0.00,FEW,,0.00,23.0,WeatherDisplay:10.37,2013-09-27 16:29:00,
2013-09-27 18:30:00,75.2,66.3,29.96,WSW,247,6.9,6.9,74,0.00,FEW,,0.00,23.0,WeatherDisplay:10.37,2013-09-27 16:30:00,
2013-09-27 18:32:00,75.2,66.7,29.96,SSW,213,5.8,5.8,75,0.00,FEW,,0.00,19.0,WeatherDisplay:10.37,2013-09-27 16:32:00,
2013-09-27 18:34:00,75.1,66.6,29.96,WSW,252,6.9,6.9,75,0.00,FEW,,0.00,19.0,WeatherDisplay:10.37,2013-09-27 16:34:00,
2013-09-27 18:35:00,75.0,66.5,29.96,WSW,237,4.6,4.6,75,0.00,FEW,,0.00,18.0,WeatherDisplay:10.37,2013-09-27 16:35:00,
2013-09-27 18:37:00,75.0,66.5,29.96,WSW,254,7.0,7.0,75,0.00,FEW,,0.00,14.0,WeatherDisplay:10.37,2013-09-27 16:37:00,
2013-09-27 18:38:00,75.0,66.5,29.96,WSW,245,11.5,11.5,75,0.00,FEW,,0.00,14.0,WeatherDisplay:10.37,2013-09-27 16:38:00,
2013-09-27 18:39:00,74.9,66.4,29.96,WSW,240,8.1,8.1,75,0.00,FEW,,0.00,12.0,WeatherDisplay:10.37,2013-09-27 16:39:00,
2013-09-27 18:40:00,74.9,66.4,29.96,SSW,208,6.9,6.9,75,0.00,FEW,,0.00,12.0,WeatherDisplay:10.37,2013-09-27 16:40:00,
2013-09-27 18:43:00,74.8,66.3,29.96,SW,215,4.6,4.6,75,0.00,FEW,,0.00,11.0,WeatherDisplay:10.37,2013-09-27 16:43:00,
2013-09-27 18:44:00,74.8,66.7,29.96,WSW,240,4.6,4.6,76,0.00,FEW,,0.00,9.0,WeatherDisplay:10.37,2013-09-27 16:44:00,
2013-09-27 18:45:00,74.7,66.6,29.96,WSW,248,5.8,5.8,76,0.00,FEW,,0.00,9.0,WeatherDisplay:10.37,2013-09-27 16:45:00,
2013-09-27 18:46:00,74.7,66.6,29.96,WSW,248,3.5,3.5,76,0.00,FEW,,0.00,9.0,WeatherDisplay:10.37,2013-09-27 16:46:00,
2013-09-27 18:48:00,74.7,66.6,29.96,SSW,197,1.2,1.2,76,0.00,FEW,,0.00,9.0,WeatherDisplay:10.37,2013-09-27 16:48:00,
2013-09-27 18:49:00,74.6,66.5,29.96,SW,228,1.2,1.2,76,0.00,FEW,,0.00,5.0,WeatherDisplay:10.37,2013-09-27 16:49:00,
2013-09-27 18:50:00,74.6,66.5,29.96,West,259,8.1,8.1,76,0.00,FEW,,0.00,5.0,WeatherDisplay:10.37,2013-09-27 16:50:00,
2013-09-27 18:51:00,74.6,66.5,29.96,WSW,256,6.9,6.9,76,0.00,FEW,,0.00,5.0,WeatherDisplay:10.37,2013-09-27 16:51:00,
2013-09-27 18:53:00,74.5,66.4,29.96,SW,217,4.0,4.0,76,0.00,FEW,,0.00,0.0,WeatherDisplay:10.37,2013-09-27 16:53:00,
2013-09-27 18:54:00,74.5,66.4,29.96,WSW,247,6.0,6.0,76,0.00,FEW,,0.00,0.0,WeatherDisplay:10.37,2013-09-27 16:54:00,
2013-09-27 18:55:00,74.5,66.4,29.96,WSW,247,6.9,6.9,76,0.00,FEW,,0.00,0.0,WeatherDisplay:10.37,2013-09-27 16:55:00,
2013-09-27 18:56:00,74.4,66.7,29.96,WSW,252,5.8,5.8,77,0.00,FEW,,0.00,0.0,WeatherDisplay:10.37,2013-09-27 16:56:00,
2013-09-27 18:59:00,74.4,66.7,29.96,WSW,242,6.9,6.9,77,0.00,FEW,,0.00,0.0,WeatherDisplay:10.37,2013-09-27 16:59:00,
2013-09-27 19:00:00,74.3,66.6,29.96,West,262,3.5,3.5,77,0.00,FEW,,0.00,0.0,WeatherDisplay:10.37,2013-09-27 17:00:00,
2013-09-27 19:01:00,74.3,66.6,29.96,WSW,244,2.3,0.0,77,0.00,FEW,,0.00,0.0,WeatherDisplay:10.37,2013-09-27 17:01:00,
2013-09-27 19:05:00,74.1,66.4,29.96,SSW,206,5.0,5.0,77,0.00,FEW,,0.00,0.0,WeatherDisplay:10.37,2013-09-27 17:05:00,
2013-09-27 19:06:00,74.1,66.4,29.96,SW,223,4.6,4.6,77,0.00,FEW,,0.00,0.0,WeatherDisplay:10.37,2013-09-27 17:06:00,
2013-09-27 19:07:00,74.1,66.4,29.96,West,260,4.6,4.6,77,0.00,FEW,,0.00,0.0,WeatherDisplay:10.37,2013-09-27 17:07:00,
2013-09-27 19:11:00,74.0,66.7,29.96,WSW,254,5.0,5.0,78,0.00,FEW,,0.00,0.0,WeatherDisplay:10.37,2013-09-27 17:11:00,
2013-09-27 19:12:00,74.0,66.7,29.96,WSW,245,5.8,5.8,78,0.00,FEW,,0.00,0.0,WeatherDisplay:10.37,2013-09-27 17:12:00,
2013-09-27 19:16:00,73.8,66.5,29.96,WNW,283,5.8,5.8,78,0.00,FEW,,0.00,0.0,WeatherDisplay:10.37,2013-09-27 17:16:00,
2013-09-27 19:17:00,73.8,66.5,29.96,WNW,283,6.9,6.9,78,0.00,FEW,,0.00,0.0,WeatherDisplay:10.37,2013-09-27 17:17:00,
2013-09-27 19:21:00,73.7,66.8,29.96,WSW,252,6.9,6.9,79,0.00,FEW,,0.00,0.0,WeatherDisplay:10.37,2013-09-27 17:21:00,
2013-09-27 19:22:00,73.7,66.8,29.96,WSW,252,4.6,5.1,79,0.00,FEW,,0.00,0.0,WeatherDisplay:10.37,2013-09-27 17:22:00,
2013-09-27 19:23:00,73.7,66.8,29.96,West,266,5.8,5.8,79,0.00,FEW,,0.00,0.0,WeatherDisplay:10.37,2013-09-27 17:23:00,
2013-09-27 19:26:00,73.6,66.7,29.96,WSW,244,5.8,5.8,79,0.00,FEW,,0.00,0.0,WeatherDisplay:10.37,2013-09-27 17:26:00,
2013-09-27 19:27:00,73.6,66.7,29.96,WSW,244,5.8,5.8,79,0.00,FEW,,0.00,0.0,WeatherDisplay:10.37,2013-09-27 17:27:00,
2013-09-27 19:28:00,73.5,66.6,29.96,WSW,258,5.8,5.8,79,0.00,FEW,,0.00,0.0,WeatherDisplay:10.37,2013-09-27 17:28:00,
2013-09-27 19:29:00,73.5,66.6,29.96,WSW,239,6.9,6.9,79,0.00,FEW,,0.00,0.0,WeatherDisplay:10.37,2013-09-27 17:29:00,
2013-09-27 19:32:00,73.4,66.5,29.96,WSW,256,5.8,5.8,79,0.00,FEW,,0.00,0.0,WeatherDisplay:10.37,2013-09-27 17:32:00,
2013-09-27 19:33:00,73.4,66.5,29.97,West,259,5.8,5.8,79,0.00,FEW,,0.00,0.0,WeatherDisplay:10.37,2013-09-27 17:33:00,
2013-09-27 19:34:00,73.4,66.9,29.96,WSW,252,4.6,4.6,80,0.00,FEW,,0.00,0.0,WeatherDisplay:10.37,2013-09-27 17:34:00,
2013-09-27 19:37:00,73.3,66.8,29.96,SSW,206,4.0,4.0,80,0.00,FEW,,0.00,0.0,WeatherDisplay:10.37,2013-09-27 17:37:00,
2013-09-27 19:38:00,73.2,66.7,29.96,WSW,246,4.6,4.6,80,0.00,FEW,,0.00,0.0,WeatherDisplay:10.37,2013-09-27 17:38:00,
2013-09-27 19:39:00,73.2,66.7,29.97,SW,229,3.5,3.5,80,0.00,FEW,,0.00,0.0,WeatherDisplay:10.37,2013-09-27 17:39:00,
2013-09-27 19:42:00,73.1,66.6,29.97,WSW,258,5.8,5.8,80,0.00,FEW,,0.00,0.0,WeatherDisplay:10.37,2013-09-27 17:42:00,
2013-09-27 19:43:00,73.1,66.6,29.97,West,261,5.8,5.8,80,0.00,FEW,,0.00,0.0,WeatherDisplay:10.37,2013-09-27 17:43:00,
2013-09-27 19:44:00,73.1,66.9,29.97,WSW,252,4.6,4.6,81,0.00,FEW,,0.00,0.0,WeatherDisplay:10.37,2013-09-27 17:44:00,
2013-09-27 19:47:00,73.0,66.8,29.97,WSW,241,4.6,4.6,81,0.00,FEW,,0.00,0.0,WeatherDisplay:10.37,2013-09-27 17:47:00,
2013-09-27 19:48:00,73.0,66.8,29.97,West,272,6.0,6.0,81,0.00,FEW,,0.00,0.0,WeatherDisplay:10.37,2013-09-27 17:48:00,
2013-09-27 19:50:00,73.0,66.8,29.97,West,267,5.8,5.8,81,0.00,FEW,,0.00,0.0,WeatherDisplay:10.37,2013-09-27 17:50:00,
2013-09-27 19:52:00,72.9,66.7,29.96,WSW,252,6.0,6.0,81,0.00,FEW,,0.00,0.0,WeatherDisplay:10.37,2013-09-27 17:52:00,
2013-09-27 19:53:00,72.9,66.7,29.97,West,262,5.8,5.8,81,0.00,FEW,,0.00,0.0,WeatherDisplay:10.37,2013-09-27 17:53:00,
2013-09-27 19:54:00,72.9,66.7,29.97,WSW,258,6.0,6.0,81,0.00,FEW,,0.00,0.0,WeatherDisplay:10.37,2013-09-27 17:54:00,
2013-09-27 19:55:00,72.9,66.7,29.97,West,279,6.9,6.9,81,0.00,FEW,,0.00,0.0,WeatherDisplay:10.37,2013-09-27 17:55:00,
2013-09-27 19:57:00,72.8,67.0,29.97,West,267,5.0,5.0,82,0.00,FEW,,0.00,0.0,WeatherDisplay:10.37,2013-09-27 17:57:00,
2013-09-27 19:58:00,72.8,67.0,29.97,West,259,4.6,4.6,82,0.00,FEW,,0.00,0.0,WeatherDisplay:10.37,2013-09-27 17:58:00,
2013-09-27 19:59:00,72.8,67.0,29.97,West,265,5.8,5.8,82,0.00,FEW,,0.00,0.0,WeatherDisplay:10.37,2013-09-27 17:59:00,
2013-09-27 20:00:00,72.8,67.0,29.97,West,271,4.6,4.6,82,0.00,FEW,,0.00,0.0,WeatherDisplay:10.37,2013-09-27 18:00:00,
2013-09-27 20:01:00,72.7,66.9,29.97,West,259,5.0,5.0,82,0.00,FEW,,0.00,0.0,WeatherDisplay:10.37,2013-09-27 18:01:00,
2013-09-27 20:02:00,72.7,66.9,29.97,West,265,4.6,4.6,82,0.00,FEW,,0.00,0.0,WeatherDisplay:10.37,2013-09-27 18:02:00,
2013-09-27 20:04:00,72.7,66.9,29.97,West,268,3.5,3.5,82,0.00,FEW,,0.00,0.0,WeatherDisplay:10.37,2013-09-27 18:04:00,
2013-09-27 20:06:00,72.7,66.9,29.97,West,275,4.6,4.6,82,0.00,FEW,,0.00,0.0,WeatherDisplay:10.37,2013-09-27 18:06:00,
2013-09-27 20:07:00,72.6,66.8,29.97,West,273,5.0,5.0,82,0.00,FEW,,0.00,0.0,WeatherDisplay:10.37,2013-09-27 18:07:00,
2013-09-27 20:09:00,72.6,66.8,29.97,WSW,257,3.5,3.5,82,0.00,FEW,,0.00,0.0,WeatherDisplay:10.37,2013-09-27 18:09:00,
2013-09-27 20:10:00,72.6,66.8,29.97,West,275,4.0,4.0,82,0.00,FEW,,0.00,0.0,WeatherDisplay:10.37,2013-09-27 18:10:00,
2013-09-27 20:12:00,72.5,66.7,29.97,West,259,3.5,3.5,82,0.00,FEW,,0.00,0.0,WeatherDisplay:10.37,2013-09-27 18:12:00,
2013-09-27 20:15:00,72.5,66.7,29.97,WSW,248,4.6,4.6,82,0.00,FEW,,0.00,0.0,WeatherDisplay:10.37,2013-09-27 18:15:00,
2013-09-27 20:17:00,72.4,66.9,29.97,WSW,243,4.6,4.6,83,0.00,FEW,,0.00,0.0,WeatherDisplay:10.37,2013-09-27 18:17:00,
2013-09-27 20:18:00,72.4,66.9,29.97,WSW,248,4.6,4.6,83,0.00,FEW,,0.00,0.0,WeatherDisplay:10.37,2013-09-27 18:18:00,
2013-09-27 20:20:00,72.4,66.9,29.97,West,267,0.0,0.0,83,0.00,FEW,,0.00,0.0,WeatherDisplay:10.37,2013-09-27 18:20:00,
2013-09-27 20:21:00,72.4,66.9,29.97,WSW,253,0.0,0.0,83,0.00,FEW,,0.00,0.0,WeatherDisplay:10.37,2013-09-27 18:21:00,
2013-09-27 20:23:00,72.3,66.8,29.97,West,268,0.0,0.0,83,0.00,FEW,,0.00,0.0,WeatherDisplay:10.37,2013-09-27 18:23:00,
2013-09-27 20:25:00,72.3,66.8,29.97,West,261,0.0,0.0,83,0.00,FEW,,0.00,0.0,WeatherDisplay:10.37,2013-09-27 18:25:00,
2013-09-27 20:27:00,72.2,66.7,29.97,WSW,254,0.0,0.0,83,0.00,FEW,,0.00,0.0,WeatherDisplay:10.37,2013-09-27 18:27:00,
2013-09-27 20:28:00,72.2,66.7,29.97,WSW,255,0.0,0.0,83,0.00,FEW,,0.00,0.0,WeatherDisplay:10.37,2013-09-27 18:28:00,
2013-09-27 20:30:00,72.2,66.7,29.97,West,267,4.0,4.0,83,0.00,FEW,,0.00,0.0,WeatherDisplay:10.37,2013-09-27 18:30:00,
2013-09-27 20:32:00,72.2,67.1,29.97,West,263,4.0,4.0,84,0.00,FEW,,0.00,0.0,WeatherDisplay:10.37,2013-09-27 18:32:00,
2013-09-27 20:33:00,72.2,67.1,29.97,WSW,250,5.0,5.0,84,0.00,FEW,,0.00,0.0,WeatherDisplay:10.37,2013-09-27 18:33:00,
2013-09-27 20:36:00,72.1,67.0,29.97,WNW,284,1.2,0.0,84,0.00,FEW,,0.00,0.0,WeatherDisplay:10.37,2013-09-27 18:36:00,
2013-09-27 20:38:00,72.1,67.0,29.97,West,259,4.0,4.0,84,0.00,FEW,,0.00,0.0,WeatherDisplay:10.37,2013-09-27 18:38:00,
2013-09-27 20:39:00,72.1,67.0,29.97,West,271,3.5,3.5,84,0.00,FEW,,0.00,0.0,WeatherDisplay:10.37,2013-09-27 18:39:00,
2013-09-27 20:41:00,72.0,66.9,29.97,West,265,0.0,0.0,84,0.00,FEW,,0.00,0.0,WeatherDisplay:10.37,2013-09-27 18:41:00,
2013-09-27 20:43:00,72.0,66.9,29.97,West,274,3.0,3.0,84,0.00,FEW,,0.00,0.0,WeatherDisplay:10.37,2013-09-27 18:43:00,
2013-09-27 20:44:00,72.0,66.9,29.97,West,264,3.5,3.7,84,0.00,FEW,,0.00,0.0,WeatherDisplay:10.37,2013-09-27 18:44:00,
2013-09-27 20:47:00,72.0,66.9,29.97,West,277,2.3,0.0,84,0.00,FEW,,0.00,0.0,WeatherDisplay:10.37,2013-09-27 18:47:00,
2013-09-27 20:48:00,72.0,66.9,29.97,West,277,0.0,0.0,84,0.00,FEW,,0.00,0.0,WeatherDisplay:10.37,2013-09-27 18:48:00,
2013-09-27 20:49:00,71.9,66.8,29.97,West,277,0.0,0.0,84,0.00,FEW,,0.00,0.0,WeatherDisplay:10.37,2013-09-27 18:49:00,
2013-09-27 20:50:00,71.9,66.8,29.97,West,265,0.0,0.0,84,0.00,FEW,,0.00,0.0,WeatherDisplay:10.37,2013-09-27 18:50:00,
2013-09-27 20:52:00,71.9,66.8,29.97,West,263,0.0,0.0,84,0.00,FEW,,0.00,0.0,WeatherDisplay:10.37,2013-09-27 18:52:00,
2013-09-27 20:53:00,71.9,66.8,29.97,West,263,0.0,0.0,84,0.00,FEW,,0.00,0.0,WeatherDisplay:10.37,2013-09-27 18:53:00,
2013-09-27 20:54:00,71.9,66.8,29.97,West,263,0.0,0.0,84,0.00,FEW,,0.00,0.0,WeatherDisplay:10.37,2013-09-27 18:54:00,
2013-09-27 20:55:00,71.8,66.7,29.97,West,259,4.0,4.0,84,0.00,FEW,,0.00,0.0,WeatherDisplay:10.37,2013-09-27 18:55:00,
2013-09-27 20:57:00,71.8,66.7,29.97,WSW,253,3.5,3.5,84,0.00,FEW,,0.00,0.0,WeatherDisplay:10.37,2013-09-27 18:57:00,
2013-09-27 20:59:00,71.8,66.7,29.97,WSW,255,2.3,2.3,84,0.00,FEW,,0.00,0.0,WeatherDisplay:10.37,2013-09-27 18:59:00,
2013-09-27 21:01:00,71.7,66.9,29.97,West,261,0.0,0.0,85,0.00,FEW,,0.00,0.0,WeatherDisplay:10.37,2013-09-27 19:01:00,
2013-09-27 21:02:00,71.7,66.9,29.97,West,269,0.0,0.0,85,0.00,FEW,,0.00,0.0,WeatherDisplay:10.37,2013-09-27 19:02:00,
2013-09-27 21:04:00,71.6,66.8,29.97,SW,221,2.3,2.3,85,0.00,FEW,,0.00,0.0,WeatherDisplay:10.37,2013-09-27 19:04:00,
2013-09-27 21:07:00,71.6,66.8,29.98,West,269,4.6,4.6,85,0.00,FEW,,0.00,0.0,WeatherDisplay:10.37,2013-09-27 19:07:00,
2013-09-27 21:09:00,71.5,66.8,29.97,West,279,3.5,3.5,85,0.00,FEW,,0.00,0.0,WeatherDisplay:10.37,2013-09-27 19:09:00,
2013-09-27 21:12:00,71.5,66.8,29.98,West,261,4.6,4.6,85,0.00,FEW,,0.00,0.0,WeatherDisplay:10.37,2013-09-27 19:12:00,
2013-09-27 21:13:00,71.5,66.8,29.97,West,261,3.5,3.5,85,0.00,FEW,,0.00,0.0,WeatherDisplay:10.37,2013-09-27 19:13:00,
2013-09-27 21:14:00,71.4,66.7,29.98,West,261,2.3,0.0,85,0.00,FEW,,0.00,0.0,WeatherDisplay:10.37,2013-09-27 19:14:00,
2013-09-27 21:15:00,71.4,66.7,29.98,West,261,0.0,0.0,85,0.00,FEW,,0.00,0.0,WeatherDisplay:10.37,2013-09-27 19:15:00,
2013-09-27 21:18:00,71.3,66.6,29.98,West,261,0.0,0.0,85,0.00,FEW,,0.00,0.0,WeatherDisplay:10.37,2013-09-27 19:18:00,
2013-09-27 21:19:00,71.3,66.6,29.98,WNW,294,0.0,0.0,85,0.00,FEW,,0.00,0.0,WeatherDisplay:10.37,2013-09-27 19:19:00,
2013-09-27 21:20:00,71.3,66.6,29.98,WNW,294,0.0,0.0,85,0.00,FEW,,0.00,0.0,WeatherDisplay:10.37,2013-09-27 19:20:00,
2013-09-27 21:23:00,71.3,66.6,29.98,WNW,296,0.0,0.0,85,0.00,FEW,,0.00,0.0,WeatherDisplay:10.37,2013-09-27 19:23:00,
2013-09-27 21:24:00,71.3,66.6,29.98,WNW,296,0.0,0.0,85,0.00,FEW,,0.00,0.0,WeatherDisplay:10.37,2013-09-27 19:24:00,
2013-09-27 21:25:00,71.3,66.6,29.98,NW,321,0.0,0.0,85,0.00,FEW,,0.00,0.0,WeatherDisplay:10.37,2013-09-27 19:25:00,
2013-09-27 21:29:00,71.2,66.5,29.98,NW,323,0.0,0.0,85,0.00,FEW,,0.00,0.0,WeatherDisplay:10.37,2013-09-27 19:29:00,
2013-09-27 21:30:00,71.2,66.5,29.98,NW,323,0.0,0.0,85,0.00,FEW,,0.00,0.0,WeatherDisplay:10.37,2013-09-27 19:30:00,
2013-09-27 21:34:00,71.2,66.5,29.98,NW,323,0.0,0.0,85,0.00,FEW,,0.00,0.0,WeatherDisplay:10.37,2013-09-27 19:34:00,
2013-09-27 21:35:00,71.1,66.4,29.98,NW,323,0.0,0.0,85,0.00,FEW,,0.00,0.0,WeatherDisplay:10.37,2013-09-27 19:35:00,
2013-09-27 21:36:00,71.1,66.4,29.98,NW,323,0.0,0.0,85,0.00,FEW,,0.00,0.0,WeatherDisplay:10.37,2013-09-27 19:36:00,
2013-09-27 21:39:00,71.1,66.4,29.98,NW,323,0.0,0.0,85,0.00,FEW,,0.00,0.0,WeatherDisplay:10.37,2013-09-27 19:39:00,
2013-09-27 21:40:00,71.1,66.4,29.98,NW,323,0.0,0.0,85,0.00,FEW,,0.00,0.0,WeatherDisplay:10.37,2013-09-27 19:40:00,
2013-09-27 21:41:00,71.0,66.3,29.98,NW,323,0.0,0.0,85,0.00,FEW,,0.00,0.0,WeatherDisplay:10.37,2013-09-27 19:41:00,
2013-09-27 21:42:00,71.0,66.3,29.98,NW,323,0.0,0.0,85,0.00,FEW,,0.00,0.0,WeatherDisplay:10.37,2013-09-27 19:42:00,
2013-09-27 21:45:00,70.9,66.2,29.98,NW,323,0.0,0.0,85,0.00,FEW,,0.00,0.0,WeatherDisplay:10.37,2013-09-27 19:45:00,
2013-09-27 21:46:00,70.9,66.2,29.98,NW,323,0.0,0.0,85,0.00,FEW,,0.00,0.0,WeatherDisplay:10.37,2013-09-27 19:46:00,
2013-09-27 21:47:00,70.9,66.2,29.98,NW,323,0.0,0.0,85,0.00,FEW,,0.00,0.0,WeatherDisplay:10.37,2013-09-27 19:47:00,
2013-09-27 21:50:00,70.9,66.2,29.98,NW,323,0.0,0.0,85,0.00,FEW,,0.00,0.0,WeatherDisplay:10.37,2013-09-27 19:50:00,
2013-09-27 21:51:00,70.8,66.1,29.98,NW,323,0.0,0.0,85,0.00,FEW,,0.00,0.0,WeatherDisplay:10.37,2013-09-27 19:51:00,
2013-09-27 21:53:00,70.8,66.1,29.98,NW,323,0.0,0.0,85,0.00,FEW,,0.00,0.0,WeatherDisplay:10.37,2013-09-27 19:53:00,
2013-09-27 21:55:00,70.8,66.1,29.98,NW,323,0.0,0.0,85,0.00,FEW,,0.00,0.0,WeatherDisplay:10.37,2013-09-27 19:55:00,
2013-09-27 21:56:00,70.8,66.1,29.98,NW,323,0.0,0.0,85,0.00,FEW,,0.00,0.0,WeatherDisplay:10.37,2013-09-27 19:56:00,
2013-09-27 21:57:00,70.8,66.1,29.98,NW,323,0.0,0.0,85,0.00,FEW,,0.00,0.0,WeatherDisplay:10.37,2013-09-27 19:57:00,
2013-09-27 21:59:00,70.8,66.1,29.98,NW,323,0.0,0.0,85,0.00,FEW,,0.00,0.0,WeatherDisplay:10.37,2013-09-27 19:59:00,
2013-09-27 22:00:00,70.7,66.0,29.98,NW,323,0.0,0.0,85,0.00,FEW,,0.00,0.0,WeatherDisplay:10.37,2013-09-27 20:00:00,
2013-09-27 22:02:00,70.7,66.0,29.98,NW,323,0.0,0.0,85,0.00,FEW,,0.00,0.0,WeatherDisplay:10.37,2013-09-27 20:02:00,
2013-09-27 22:03:00,70.7,66.0,29.98,NW,323,0.0,0.0,85,0.00,FEW,,0.00,0.0,WeatherDisplay:10.37,2013-09-27 20:03:00,
2013-09-27 22:05:00,70.6,65.9,29.98,NW,323,0.0,0.0,85,0.00,FEW,,0.00,0.0,WeatherDisplay:10.37,2013-09-27 20:05:00,
2013-09-27 22:07:00,70.6,65.9,29.98,NW,323,0.0,0.0,85,0.00,FEW,,0.00,0.0,WeatherDisplay:10.37,2013-09-27 20:07:00,
2013-09-27 22:08:00,70.6,65.9,29.98,NW,323,0.0,0.0,85,0.00,FEW,,0.00,0.0,WeatherDisplay:10.37,2013-09-27 20:08:00,
2013-09-27 22:11:00,70.6,65.9,29.98,NW,323,0.0,0.0,85,0.00,FEW,,0.00,0.0,WeatherDisplay:10.37,2013-09-27 20:11:00,
2013-09-27 22:12:00,70.5,65.8,29.98,NW,323,0.0,0.0,85,0.00,FEW,,0.00,0.0,WeatherDisplay:10.37,2013-09-27 20:12:00,
2013-09-27 22:14:00,70.5,65.8,29.98,NW,323,0.0,0.0,85,0.00,FEW,,0.00,0.0,WeatherDisplay:10.37,2013-09-27 20:14:00,
2013-09-27 22:16:00,70.5,65.8,29.98,NW,323,0.0,0.0,85,0.00,FEW,,0.00,0.0,WeatherDisplay:10.37,2013-09-27 20:16:00,
2013-09-27 22:18:00,70.5,65.8,29.98,NW,323,0.0,0.0,85,0.00,FEW,,0.00,0.0,WeatherDisplay:10.37,2013-09-27 20:18:00,
2013-09-27 22:20:00,70.4,65.7,29.98,NW,323,0.0,0.0,85,0.00,FEW,,0.00,0.0,WeatherDisplay:10.37,2013-09-27 20:20:00,
2013-09-27 22:21:00,70.5,65.8,29.98,NW,323,0.0,0.0,85,0.00,FEW,,0.00,0.0,WeatherDisplay:10.37,2013-09-27 20:21:00,
2013-09-27 22:23:00,70.4,65.7,29.97,NW,323,0.0,0.0,85,0.00,FEW,,0.00,0.0,WeatherDisplay:10.37,2013-09-27 20:23:00,
2013-09-27 22:25:00,70.4,65.7,29.98,NW,323,0.0,0.0,85,0.00,FEW,,0.00,0.0,WeatherDisplay:10.37,2013-09-27 20:25:00,
2013-09-27 22:26:00,70.3,65.6,29.98,NW,323,0.0,0.0,85,0.00,FEW,,0.00,0.0,WeatherDisplay:10.37,2013-09-27 20:26:00,
2013-09-27 22:27:00,70.3,65.6,29.97,NW,323,0.0,0.0,85,0.00,FEW,,0.00,0.0,WeatherDisplay:10.37,2013-09-27 20:27:00,
2013-09-27 22:28:00,70.3,65.6,29.98,NW,323,0.0,0.0,85,0.00,FEW,,0.00,0.0,WeatherDisplay:10.37,2013-09-27 20:28:00,
2013-09-27 22:30:00,70.3,65.6,29.97,NW,323,0.0,0.0,85,0.00,FEW,,0.00,0.0,WeatherDisplay:10.37,2013-09-27 20:30:00,
2013-09-27 22:31:00,70.2,65.5,29.97,NW,323,0.0,0.0,85,0.00,FEW,,0.00,0.0,WeatherDisplay:10.37,2013-09-27 20:31:00,
2013-09-27 22:32:00,70.2,65.5,29.97,NW,323,0.0,0.0,85,0.00,FEW,,0.00,0.0,WeatherDisplay:10.37,2013-09-27 20:32:00,
2013-09-27 22:33:00,70.2,65.5,29.97,NW,323,0.0,0.0,85,0.00,FEW,,0.00,0.0,WeatherDisplay:10.37,2013-09-27 20:33:00,
2013-09-27 22:34:00,70.2,65.5,29.97,NW,323,0.0,0.0,85,0.00,FEW,,0.00,0.0,WeatherDisplay:10.37,2013-09-27 20:34:00,
2013-09-27 22:35:00,70.2,65.5,29.97,NW,323,0.0,0.0,85,0.00,FEW,,0.00,0.0,WeatherDisplay:10.37,2013-09-27 20:35:00,
2013-09-27 22:37:00,70.1,65.4,29.97,NW,323,0.0,0.0,85,0.00,FEW,,0.00,0.0,WeatherDisplay:10.37,2013-09-27 20:37:00,
2013-09-27 22:38:00,70.1,65.4,29.97,NW,323,0.0,0.0,85,0.00,FEW,,0.00,0.0,WeatherDisplay:10.37,2013-09-27 20:38:00,
2013-09-27 22:40:00,70.1,65.4,29.97,NW,323,0.0,0.0,85,0.00,FEW,,0.00,0.0,WeatherDisplay:10.37,2013-09-27 20:40:00,
2013-09-27 22:42:00,70.0,65.3,29.97,NW,323,0.0,0.0,85,0.00,FEW,,0.00,0.0,WeatherDisplay:10.37,2013-09-27 20:42:00,
2013-09-27 22:44:00,70.0,65.3,29.97,NW,323,0.0,0.0,85,0.00,FEW,,0.00,0.0,WeatherDisplay:10.37,2013-09-27 20:44:00,
2013-09-27 22:45:00,69.9,65.2,29.97,NW,323,0.0,0.0,85,0.00,FEW,,0.00,0.0,WeatherDisplay:10.37,2013-09-27 20:45:00,
2013-09-27 22:48:00,69.9,65.2,29.97,NW,323,0.0,0.0,85,0.00,FEW,,0.00,0.0,WeatherDisplay:10.37,2013-09-27 20:48:00,
2013-09-27 22:49:00,69.8,65.1,29.97,NW,323,0.0,0.0,85,0.00,FEW,,0.00,0.0,WeatherDisplay:10.37,2013-09-27 20:49:00,
2013-09-27 22:50:00,69.8,65.1,29.97,NW,323,0.0,0.0,85,0.00,FEW,,0.00,0.0,WeatherDisplay:10.37,2013-09-27 20:50:00,
2013-09-27 22:53:00,69.7,65.0,29.97,NW,323,0.0,0.0,85,0.00,FEW,,0.00,0.0,WeatherDisplay:10.37,2013-09-27 20:53:00,
2013-09-27 22:55:00,69.7,65.0,29.97,NW,323,0.0,0.0,85,0.00,FEW,,0.00,0.0,WeatherDisplay:10.37,2013-09-27 20:55:00,
2013-09-27 22:56:00,69.7,65.0,29.97,NW,323,0.0,0.0,85,0.00,FEW,,0.00,0.0,WeatherDisplay:10.37,2013-09-27 20:56:00,
2013-09-27 22:58:00,69.6,64.9,29.97,NW,323,0.0,0.0,85,0.00,FEW,,0.00,0.0,WeatherDisplay:10.37,2013-09-27 20:58:00,
2013-09-27 22:59:00,69.6,64.9,29.97,NW,323,0.0,0.0,85,0.00,FEW,,0.00,0.0,WeatherDisplay:10.37,2013-09-27 20:59:00,
2013-09-27 23:00:00,69.5,64.8,29.97,NW,323,0.0,0.0,85,0.00,FEW,,0.00,0.0,WeatherDisplay:10.37,2013-09-27 21:00:00,
2013-09-27 23:01:00,69.5,64.8,29.98,NW,323,0.0,0.0,85,0.00,FEW,,0.00,0.0,WeatherDisplay:10.37,2013-09-27 21:01:00,
2013-09-27 23:03:00,69.4,65.0,29.98,NW,323,0.0,0.0,86,0.00,FEW,,0.00,0.0,WeatherDisplay:10.37,2013-09-27 21:03:00,
2013-09-27 23:05:00,69.4,65.0,29.97,NW,323,0.0,0.0,86,0.00,FEW,,0.00,0.0,WeatherDisplay:10.37,2013-09-27 21:05:00,
2013-09-27 23:06:00,69.4,65.0,29.97,NW,323,0.0,0.0,86,0.00,FEW,,0.00,0.0,WeatherDisplay:10.37,2013-09-27 21:06:00,
2013-09-27 23:08:00,69.4,65.0,29.98,NW,323,0.0,0.0,86,0.00,FEW,,0.00,0.0,WeatherDisplay:10.37,2013-09-27 21:08:00,
2013-09-27 23:11:00,69.3,64.9,29.98,NW,323,0.0,0.0,86,0.00,FEW,,0.00,0.0,WeatherDisplay:10.37,2013-09-27 21:11:00,
2013-09-27 23:13:00,69.3,64.9,29.98,NW,323,0.0,0.0,86,0.00,FEW,,0.00,0.0,WeatherDisplay:10.37,2013-09-27 21:13:00,
2013-09-27 23:16:00,69.3,64.9,29.98,NW,323,0.0,0.0,86,0.00,FEW,,0.00,0.0,WeatherDisplay:10.37,2013-09-27 21:16:00,
2013-09-27 23:17:00,69.3,64.9,29.97,NW,323,0.0,0.0,86,0.00,FEW,,0.00,0.0,WeatherDisplay:10.37,2013-09-27 21:17:00,
2013-09-27 23:18:00,69.2,64.8,29.98,NW,323,0.0,0.0,86,0.00,FEW,,0.00,0.0,WeatherDisplay:10.37,2013-09-27 21:18:00,
2013-09-27 23:19:00,69.2,64.8,29.97,NW,323,0.0,0.0,86,0.00,FEW,,0.00,0.0,WeatherDisplay:10.37,2013-09-27 21:19:00,
2013-09-27 23:21:00,69.2,64.8,29.98,NW,323,0.0,0.0,86,0.00,FEW,,0.00,0.0,WeatherDisplay:10.37,2013-09-27 21:21:00,
2013-09-27 23:22:00,69.2,64.8,29.97,NW,323,0.0,0.0,86,0.00,FEW,,0.00,0.0,WeatherDisplay:10.37,2013-09-27 21:22:00,
2013-09-27 23:24:00,69.1,64.7,29.97,NW,323,0.0,0.0,86,0.00,FEW,,0.00,0.0,WeatherDisplay:10.37,2013-09-27 21:24:00,
2013-09-27 23:26:00,69.1,64.7,29.98,NW,323,0.0,0.0,86,0.00,FEW,,0.00,0.0,WeatherDisplay:10.37,2013-09-27 21:26:00,
2013-09-27 23:27:00,69.1,64.7,29.97,NW,323,0.0,0.0,86,0.00,FEW,,0.00,0.0,WeatherDisplay:10.37,2013-09-27 21:27:00,
2013-09-27 23:29:00,69.1,64.7,29.97,NW,323,0.0,0.0,86,0.00,FEW,,0.00,0.0,WeatherDisplay:10.37,2013-09-27 21:29:00,
2013-09-27 23:31:00,69.1,64.7,29.97,NW,323,0.0,0.0,86,0.00,FEW,,0.00,0.0,WeatherDisplay:10.37,2013-09-27 21:31:00,
2013-09-27 23:32:00,69.1,64.7,29.97,NW,323,0.0,0.0,86,0.00,FEW,,0.00,0.0,WeatherDisplay:10.37,2013-09-27 21:32:00,
2013-09-27 23:34:00,69.1,65.1,29.97,NW,323,0.0,0.0,87,0.00,FEW,,0.00,0.0,WeatherDisplay:10.37,2013-09-27 21:34:00,
2013-09-27 23:35:00,69.1,65.1,29.97,NW,323,0.0,0.0,87,0.00,FEW,,0.00,0.0,WeatherDisplay:10.37,2013-09-27 21:35:00,
2013-09-27 23:36:00,69.1,65.1,29.97,NW,323,0.0,0.0,87,0.00,FEW,,0.00,0.0,WeatherDisplay:10.37,2013-09-27 21:36:00,
2013-09-27 23:37:00,69.1,65.1,29.97,NW,324,0.0,0.0,87,0.00,FEW,,0.00,0.0,WeatherDisplay:10.37,2013-09-27 21:37:00,
2013-09-27 23:38:00,69.1,65.1,29.97,NW,324,0.0,0.0,87,0.00,FEW,,0.00,0.0,WeatherDisplay:10.37,2013-09-27 21:38:00,
2013-09-27 23:40:00,69.1,65.1,29.97,NW,324,0.0,0.0,87,0.00,FEW,,0.00,0.0,WeatherDisplay:10.37,2013-09-27 21:40:00,
2013-09-27 23:41:00,69.1,65.1,29.97,NW,324,0.0,0.0,87,0.00,FEW,,0.00,0.0,WeatherDisplay:10.37,2013-09-27 21:41:00,
2013-09-27 23:43:00,69.0,65.0,29.97,NW,324,0.0,0.0,87,0.00,FEW,,0.00,0.0,WeatherDisplay:10.37,2013-09-27 21:43:00,
2013-09-27 23:45:00,68.9,64.9,29.97,NNW,328,0.0,0.0,87,0.00,FEW,,0.00,0.0,WeatherDisplay:10.37,2013-09-27 21:45:00,
2013-09-27 23:46:00,68.9,64.9,29.97,NNW,328,0.0,0.0,87,0.00,FEW,,0.00,0.0,WeatherDisplay:10.37,2013-09-27 21:46:00,
2013-09-27 23:48:00,68.9,64.9,29.97,NNW,328,0.0,0.0,87,0.00,FEW,,0.00,0.0,WeatherDisplay:10.37,2013-09-27 21:48:00,
2013-09-27 23:51:00,68.8,64.8,29.97,NNW,328,0.0,0.0,87,0.00,FEW,,0.00,0.0,WeatherDisplay:10.37,2013-09-27 21:51:00,
2013-09-27 23:52:00,68.8,64.8,29.97,NNW,328,0.0,0.0,87,0.00,FEW,,0.00,0.0,WeatherDisplay:10.37,2013-09-27 21:52:00,
2013-09-27 23:53:00,68.8,64.8,29.97,NNW,328,0.0,0.0,87,0.00,FEW,,0.00,0.0,WeatherDisplay:10.37,2013-09-27 21:53:00,
2013-09-27 23:56:00,68.7,64.7,29.97,NNW,328,0.0,0.0,87,0.00,FEW,,0.00,0.0,WeatherDisplay:10.37,2013-09-27 21:56:00,
2013-09-27 23:57:00,68.7,64.7,29.97,NNW,328,0.0,0.0,87,0.00,FEW,,0.00,0.0,WeatherDisplay:10.37,2013-09-27 21:57:00,
2013-09-27 23:58:00,68.7,64.7,29.97,NNW,328,0.0,0.0,87,0.00,FEW,,0.00,0.0,WeatherDisplay:10.37,2013-09-27 21:58:00,
2013-09-27 23:59:00,68.7,64.7,29.97,NNW,328,0.0,0.0,87,0.00,FEW,,0.00,0.0,WeatherDisplay:10.37,2013-09-27 21:59:00,